T7ZEM SAWH-SCRM

Flight info

Callsign T7ZEM
Flight time N/A
Altitude 29000
Route SUNLI2B SUNLI UV115 PWL DCT BONTA UZ133 KRILL PAMES1
Aircraft TBM8/L-SDFGRWY/S

Departure

Time 2026-04-28 15:10
Airport Ushuaia - Malvinas Argentinas International Airport (SAWH)

Arrival

Time N/A
Airport Teniente Rodolfo Marsh Martin Airport (SCRM)
Time Latitude Longitude Altitude Speed Heading
2026-04-28 14:58 -54.84138 -68.30604 103 ft 0 kts 144°
2026-04-28 15:04 -54.84139 -68.30603 103 ft 1 kts 144°
2026-04-28 15:05 -54.84107 -68.30600 103 ft 11 kts 269°
2026-04-28 15:05 -54.84152 -68.30707 103 ft 8 kts 172°
2026-04-28 15:06 -54.84290 -68.30964 105 ft 4 kts 182°
2026-04-28 15:06 -54.84295 -68.30964 105 ft 2 kts 179°
2026-04-28 15:06 -54.84328 -68.30957 106 ft 8 kts 170°
2026-04-28 15:06 -54.84367 -68.30867 105 ft 15 kts 92°
2026-04-28 15:07 -54.84369 -68.30636 102 ft 23 kts 88°
2026-04-28 15:07 -54.84357 -68.30320 100 ft 29 kts 86°
2026-04-28 15:07 -54.84345 -68.29946 101 ft 33 kts 85°
2026-04-28 15:07 -54.84326 -68.29530 102 ft 36 kts 86°
2026-04-28 15:08 -54.84311 -68.29074 99 ft 40 kts 85°
2026-04-28 15:08 -54.84294 -68.28578 94 ft 43 kts 86°
2026-04-28 15:08 -54.84273 -68.28060 95 ft 43 kts 85°
2026-04-28 15:08 -54.84239 -68.27576 96 ft 33 kts 73°
2026-04-28 15:09 -54.84254 -68.27599 96 ft 24 kts 271°
2026-04-28 15:09 -54.84272 -68.27998 96 ft 48 kts 267°
2026-04-28 15:09 -54.84306 -68.28892 98 ft 98 kts 266°
2026-04-28 15:09 -54.84381 -68.30241 179 ft 125 kts 263°
2026-04-28 15:10 -54.84279 -68.31793 335 ft 142 kts 295°
2026-04-28 15:10 -54.84094 -68.33529 528 ft 157 kts 257°
2026-04-28 15:10 -54.84800 -68.34993 766 ft 171 kts 206°
2026-04-28 15:10 -54.85980 -68.34999 966 ft 177 kts 155°
2026-04-28 15:11 -54.86776 -68.33444 1197 ft 175 kts 104°
2026-04-28 15:11 -54.86613 -68.31402 1488 ft 176 kts 62°
2026-04-28 15:11 -54.85990 -68.29557 1845 ft 178 kts 59°
2026-04-28 15:11 -54.85370 -68.27699 2263 ft 178 kts 59°
2026-04-28 15:12 -54.84893 -68.25754 2719 ft 179 kts 68°
2026-04-28 15:12 -54.84669 -68.23597 3077 ft 186 kts 82°
2026-04-28 15:12 -54.84832 -68.21369 3459 ft 189 kts 100°
2026-04-28 15:12 -54.85195 -68.19155 3813 ft 191 kts 103°
2026-04-28 15:13 -54.85557 -68.16905 4104 ft 197 kts 101°
2026-04-28 15:13 -54.85909 -68.14614 4473 ft 197 kts 102°
2026-04-28 15:13 -54.86261 -68.12311 4824 ft 198 kts 103°
2026-04-28 15:13 -54.86617 -68.09982 5163 ft 201 kts 103°
2026-04-28 15:14 -54.86977 -68.07625 5503 ft 203 kts 104°
2026-04-28 15:14 -54.87333 -68.05241 5843 ft 205 kts 102°
2026-04-28 15:14 -54.87628 -68.02848 6156 ft 207 kts 101°
2026-04-28 15:14 -54.87941 -68.00397 6482 ft 209 kts 102°
2026-04-28 15:15 -54.88269 -67.97929 6802 ft 211 kts 102°
2026-04-28 15:15 -54.88600 -67.95437 7122 ft 213 kts 101°
2026-04-28 15:15 -54.88932 -67.92922 7443 ft 214 kts 101°
2026-04-28 15:15 -54.89266 -67.90386 7765 ft 216 kts 101°
2026-04-28 15:16 -54.89603 -67.87828 8086 ft 218 kts 101°
2026-04-28 15:16 -54.89940 -67.85249 8408 ft 220 kts 101°
2026-04-28 15:16 -54.90281 -67.82650 8722 ft 222 kts 101°
2026-04-28 15:16 -54.90619 -67.80063 9026 ft 223 kts 100°
2026-04-28 15:17 -54.90964 -67.77423 9330 ft 225 kts 100°
2026-04-28 15:17 -54.91311 -67.74760 9621 ft 226 kts 100°
2026-04-28 15:17 -54.91659 -67.72085 9920 ft 228 kts 100°
2026-04-28 15:17 -54.92008 -67.69396 10217 ft 228 kts 100°
2026-04-28 15:18 -54.92358 -67.66694 10507 ft 230 kts 100°
2026-04-28 15:18 -54.92710 -67.63977 10805 ft 231 kts 100°
2026-04-28 15:18 -54.93030 -67.61240 11111 ft 231 kts 95°
2026-04-28 15:18 -54.93265 -67.58467 11398 ft 233 kts 97°
2026-04-28 15:19 -54.93539 -67.55730 11712 ft 233 kts 97°
2026-04-28 15:19 -54.93802 -67.52941 12002 ft 234 kts 97°
2026-04-28 15:19 -54.94057 -67.50138 12301 ft 235 kts 97°
2026-04-28 15:19 -54.94313 -67.47324 12587 ft 236 kts 97°
2026-04-28 15:20 -54.94573 -67.44497 12871 ft 237 kts 97°
2026-04-28 15:20 -54.94831 -67.41667 13172 ft 238 kts 97°
2026-04-28 15:20 -54.95089 -67.38820 13442 ft 239 kts 97°
2026-04-28 15:20 -54.95348 -67.35961 13708 ft 239 kts 97°
2026-04-28 15:21 -54.95606 -67.33108 13964 ft 240 kts 97°
2026-04-28 15:21 -54.95865 -67.30239 14232 ft 240 kts 97°
2026-04-28 15:21 -54.96123 -67.27362 14503 ft 241 kts 96°
2026-04-28 15:21 -54.96379 -67.24511 14767 ft 242 kts 96°
2026-04-28 15:22 -54.96639 -67.21603 15018 ft 244 kts 96°
2026-04-28 15:22 -54.96900 -67.18689 15281 ft 244 kts 96°
2026-04-28 15:22 -54.97158 -67.15769 15544 ft 244 kts 96°
2026-04-28 15:22 -54.97418 -67.12842 15803 ft 245 kts 96°
2026-04-28 15:23 -54.97677 -67.09907 16066 ft 246 kts 96°
2026-04-28 15:23 -54.97937 -67.06965 16328 ft 246 kts 96°
2026-04-28 15:23 -54.98192 -67.04054 16569 ft 247 kts 96°
2026-04-28 15:23 -54.98451 -67.01094 16804 ft 248 kts 96°
2026-04-28 15:24 -54.98711 -66.98132 17049 ft 248 kts 96°
2026-04-28 15:24 -54.98971 -66.95155 17300 ft 249 kts 96°
2026-04-28 15:24 -54.99230 -66.92171 17541 ft 250 kts 96°
2026-04-28 15:24 -54.99488 -66.89179 17763 ft 250 kts 96°
2026-04-28 15:25 -54.99788 -66.86181 17932 ft 253 kts 105°
2026-04-28 15:25 -55.00665 -66.83532 18108 ft 254 kts 133°
2026-04-28 15:25 -55.02043 -66.81743 18289 ft 250 kts 159°
2026-04-28 15:25 -55.03632 -66.80529 18495 ft 250 kts 161°
2026-04-28 15:26 -55.05227 -66.79306 18679 ft 251 kts 161°
2026-04-28 15:26 -55.06828 -66.78074 18872 ft 252 kts 161°
2026-04-28 15:26 -55.08436 -66.76837 19061 ft 253 kts 161°
2026-04-28 15:26 -55.10050 -66.75595 19249 ft 254 kts 161°
2026-04-28 15:27 -55.11670 -66.74345 19435 ft 255 kts 161°
2026-04-28 15:27 -55.13293 -66.73092 19619 ft 256 kts 162°
2026-04-28 15:27 -55.14926 -66.71830 19818 ft 257 kts 162°
2026-04-28 15:27 -55.16543 -66.70580 20004 ft 258 kts 162°
2026-04-28 15:28 -55.18187 -66.69307 20192 ft 259 kts 162°
2026-04-28 15:28 -55.19837 -66.68029 20366 ft 260 kts 162°
2026-04-28 15:28 -55.21493 -66.66745 20545 ft 261 kts 163°
2026-04-28 15:28 -55.23154 -66.65455 20729 ft 262 kts 163°
2026-04-28 15:29 -55.24821 -66.64159 20910 ft 263 kts 163°
2026-04-28 15:29 -55.26495 -66.62859 21092 ft 264 kts 163°
2026-04-28 15:29 -55.28174 -66.61551 21285 ft 265 kts 163°
2026-04-28 15:29 -55.29837 -66.60256 21447 ft 265 kts 163°
2026-04-28 15:30 -55.31524 -66.58941 21616 ft 266 kts 163°
2026-04-28 15:30 -55.33224 -66.57613 21780 ft 267 kts 163°
2026-04-28 15:30 -55.34921 -66.56286 21947 ft 268 kts 164°
2026-04-28 15:30 -55.36628 -66.54951 22116 ft 269 kts 164°
2026-04-28 15:31 -55.38339 -66.53613 22308 ft 269 kts 164°
2026-04-28 15:31 -55.40051 -66.52271 22487 ft 270 kts 165°
2026-04-28 15:31 -55.41767 -66.50925 22643 ft 270 kts 165°
2026-04-28 15:31 -55.43488 -66.49575 22803 ft 271 kts 165°
2026-04-28 15:32 -55.45190 -66.48237 22947 ft 272 kts 165°
2026-04-28 15:32 -55.46920 -66.46877 23072 ft 273 kts 165°
2026-04-28 15:32 -55.48653 -66.45511 23201 ft 273 kts 165°
2026-04-28 15:32 -55.50390 -66.44143 23310 ft 274 kts 165°
2026-04-28 15:33 -55.52130 -66.42769 23441 ft 274 kts 165°
2026-04-28 15:33 -55.53875 -66.41392 23558 ft 275 kts 165°
2026-04-28 15:33 -55.55620 -66.40012 23687 ft 276 kts 165°
2026-04-28 15:33 -55.57372 -66.38627 23810 ft 276 kts 165°
2026-04-28 15:34 -55.59128 -66.37236 23931 ft 277 kts 165°
2026-04-28 15:34 -55.60862 -66.35861 24044 ft 277 kts 166°
2026-04-28 15:34 -55.62624 -66.34463 24199 ft 278 kts 166°
2026-04-28 15:34 -55.64388 -66.33060 24312 ft 278 kts 166°
2026-04-28 15:35 -55.66157 -66.31657 24429 ft 279 kts 166°
2026-04-28 15:35 -55.69704 -66.28832 24658 ft 280 kts 166°
2026-04-28 15:35 -55.71482 -66.27414 24771 ft 280 kts 166°
2026-04-28 15:36 -55.73263 -66.25993 24877 ft 281 kts 166°
2026-04-28 15:36 -55.75020 -66.24588 24980 ft 282 kts 166°
2026-04-28 15:36 -55.76808 -66.23159 25088 ft 282 kts 167°
2026-04-28 15:36 -55.78602 -66.21721 25195 ft 283 kts 167°
2026-04-28 15:37 -55.80392 -66.20287 25299 ft 283 kts 167°
2026-04-28 15:37 -55.82189 -66.18845 25400 ft 284 kts 167°
2026-04-28 15:37 -55.83989 -66.17401 25502 ft 284 kts 167°
2026-04-28 15:37 -55.85791 -66.15951 25602 ft 284 kts 167°
2026-04-28 15:38 -55.87597 -66.14498 25733 ft 285 kts 167°
2026-04-28 15:38 -55.89382 -66.13060 25825 ft 286 kts 167°
2026-04-28 15:38 -55.91194 -66.11599 25922 ft 286 kts 167°
2026-04-28 15:38 -55.93008 -66.10135 26013 ft 286 kts 167°
2026-04-28 15:39 -55.94824 -66.08666 26106 ft 287 kts 167°
2026-04-28 15:39 -55.96643 -66.07196 26189 ft 287 kts 167°
2026-04-28 15:39 -55.98465 -66.05720 26285 ft 288 kts 167°
2026-04-28 15:39 -56.00288 -66.04243 26373 ft 288 kts 167°
2026-04-28 15:40 -56.02110 -66.02765 26460 ft 288 kts 168°
2026-04-28 15:40 -56.03943 -66.01275 26542 ft 289 kts 168°
2026-04-28 15:40 -56.05774 -65.99787 26624 ft 289 kts 168°
2026-04-28 15:40 -56.07579 -65.98318 26704 ft 290 kts 168°
2026-04-28 15:41 -56.09415 -65.96822 26783 ft 290 kts 168°
2026-04-28 15:41 -56.11252 -65.95324 26862 ft 290 kts 168°
2026-04-28 15:41 -56.13092 -65.93822 26968 ft 291 kts 168°
2026-04-28 15:41 -56.14936 -65.92315 27043 ft 291 kts 168°
2026-04-28 15:42 -56.16781 -65.90804 27123 ft 292 kts 168°
2026-04-28 15:42 -56.18628 -65.89291 27198 ft 292 kts 168°
2026-04-28 15:42 -56.20476 -65.87777 27270 ft 292 kts 168°
2026-04-28 15:42 -56.22302 -65.86278 27336 ft 293 kts 168°
2026-04-28 15:43 -56.24150 -65.84759 27405 ft 293 kts 168°
2026-04-28 15:43 -56.26008 -65.83231 27474 ft 293 kts 168°
2026-04-28 15:43 -56.27859 -65.81706 27541 ft 293 kts 168°
2026-04-28 15:43 -56.29716 -65.80175 27607 ft 294 kts 168°
2026-04-28 15:44 -56.31575 -65.78642 27669 ft 294 kts 168°
2026-04-28 15:44 -56.33436 -65.77104 27742 ft 294 kts 168°
2026-04-28 15:44 -56.35309 -65.75569 27764 ft 297 kts 168°
2026-04-28 15:44 -56.37189 -65.73995 27831 ft 298 kts 168°
2026-04-28 15:45 -56.39029 -65.72339 27896 ft 302 kts 164°
2026-04-28 15:45 -56.40892 -65.70616 27946 ft 300 kts 166°
2026-04-28 15:45 -56.42764 -65.68947 28001 ft 300 kts 166°
2026-04-28 15:45 -56.44632 -65.67234 28059 ft 302 kts 165°
2026-04-28 15:46 -56.48368 -65.63762 28173 ft 302 kts 165°
2026-04-28 15:46 -56.52109 -65.60304 28288 ft 302 kts 165°
2026-04-28 15:47 -56.55851 -65.56834 28295 ft 306 kts 165°
2026-04-28 15:47 -56.59657 -65.53292 28299 ft 308 kts 165°
2026-04-28 15:48 -56.63461 -65.49748 28297 ft 306 kts 165°
2026-04-28 15:48 -56.67222 -65.46227 28292 ft 303 kts 165°
2026-04-28 15:49 -56.70928 -65.42759 28288 ft 301 kts 165°
2026-04-28 15:49 -56.72786 -65.41015 28283 ft 300 kts 165°
2026-04-28 15:49 -56.74639 -65.39275 28279 ft 299 kts 165°
2026-04-28 15:50 -56.76489 -65.37536 28288 ft 299 kts 165°
2026-04-28 15:50 -56.78336 -65.35798 28280 ft 299 kts 165°
2026-04-28 15:50 -56.80180 -65.34060 28273 ft 298 kts 165°
2026-04-28 15:50 -56.82022 -65.32323 28276 ft 298 kts 165°
2026-04-28 15:51 -56.83857 -65.30589 28274 ft 298 kts 165°
2026-04-28 15:51 -56.85696 -65.28851 28298 ft 298 kts 165°
2026-04-28 15:51 -56.87540 -65.27107 28289 ft 298 kts 165°
2026-04-28 15:51 -56.89357 -65.25385 28289 ft 298 kts 165°
2026-04-28 15:52 -56.91199 -65.23637 28283 ft 298 kts 165°
2026-04-28 15:52 -56.93040 -65.21889 28283 ft 298 kts 165°
2026-04-28 15:52 -56.94881 -65.20139 28283 ft 298 kts 165°
2026-04-28 15:52 -56.96722 -65.18387 28282 ft 298 kts 165°
2026-04-28 15:53 -56.98562 -65.16634 28282 ft 298 kts 165°
2026-04-28 15:53 -57.00401 -65.14879 28277 ft 298 kts 165°
2026-04-28 15:53 -57.02240 -65.13123 28276 ft 298 kts 165°
2026-04-28 15:53 -57.04054 -65.11389 28276 ft 298 kts 165°
2026-04-28 15:54 -57.05892 -65.09629 28279 ft 298 kts 165°
2026-04-28 15:54 -57.07731 -65.07869 28279 ft 298 kts 165°
2026-04-28 15:54 -57.09565 -65.06110 28279 ft 298 kts 165°
2026-04-28 15:54 -57.11408 -65.04339 28273 ft 299 kts 166°
2026-04-28 15:55 -57.13254 -65.02566 28277 ft 299 kts 166°
2026-04-28 15:55 -57.15097 -65.00789 28277 ft 299 kts 166°
2026-04-28 15:55 -57.16941 -64.99013 28277 ft 299 kts 166°
2026-04-28 15:55 -57.18783 -64.97236 28276 ft 299 kts 166°
2026-04-28 15:56 -57.20625 -64.95457 28271 ft 299 kts 165°
2026-04-28 15:56 -57.22441 -64.93702 28270 ft 299 kts 165°
2026-04-28 15:56 -57.24282 -64.91920 28270 ft 299 kts 165°
2026-04-28 15:56 -57.26122 -64.90137 28270 ft 299 kts 165°
2026-04-28 15:57 -57.27962 -64.88352 28266 ft 299 kts 165°
2026-04-28 15:57 -57.29801 -64.86565 28261 ft 299 kts 165°
2026-04-28 15:57 -57.31640 -64.84778 28260 ft 299 kts 165°
2026-04-28 15:57 -57.33478 -64.82987 28260 ft 299 kts 165°
2026-04-28 15:58 -57.35314 -64.81195 28266 ft 300 kts 166°
2026-04-28 15:58 -57.37162 -64.79396 28262 ft 300 kts 166°
2026-04-28 15:58 -57.38987 -64.77616 28264 ft 300 kts 166°
2026-04-28 15:58 -57.40825 -64.75815 28257 ft 299 kts 166°
2026-04-28 15:59 -57.42667 -64.74012 28257 ft 299 kts 166°
2026-04-28 15:59 -57.44508 -64.72207 28256 ft 299 kts 166°
2026-04-28 15:59 -57.46349 -64.70402 28256 ft 299 kts 166°
2026-04-28 15:59 -57.48188 -64.68594 28255 ft 299 kts 166°
2026-04-28 16:00 -57.50027 -64.66786 28250 ft 299 kts 166°
2026-04-28 16:00 -57.51841 -64.65000 28248 ft 299 kts 166°
2026-04-28 16:00 -57.53680 -64.63188 28249 ft 299 kts 166°
2026-04-28 16:00 -57.55518 -64.61374 28248 ft 299 kts 166°
2026-04-28 16:01 -57.57356 -64.59557 28249 ft 299 kts 166°
2026-04-28 16:01 -57.59193 -64.57740 28249 ft 299 kts 166°
2026-04-28 16:01 -57.61037 -64.55911 28246 ft 300 kts 166°
2026-04-28 16:01 -57.61831 -64.55126 28246 ft 300 kts 166°
2026-04-28 16:02 -57.63674 -64.53290 28245 ft 300 kts 166°
2026-04-28 16:02 -57.65488 -64.51491 28244 ft 300 kts 166°
2026-04-28 16:02 -57.67330 -64.49667 28244 ft 300 kts 166°
2026-04-28 16:02 -57.69169 -64.47836 28244 ft 300 kts 166°
2026-04-28 16:03 -57.71009 -64.46003 28239 ft 300 kts 166°
2026-04-28 16:03 -57.72847 -64.44168 28239 ft 300 kts 166°
2026-04-28 16:03 -57.74686 -64.42331 28238 ft 300 kts 166°
2026-04-28 16:03 -57.76525 -64.40492 28238 ft 300 kts 166°
2026-04-28 16:04 -57.78363 -64.38653 28234 ft 299 kts 166°
2026-04-28 16:04 -57.80176 -64.36835 28229 ft 299 kts 166°
2026-04-28 16:04 -57.82012 -64.34992 28228 ft 299 kts 166°
2026-04-28 16:04 -57.83845 -64.33151 28228 ft 299 kts 166°
2026-04-28 16:05 -57.87528 -64.29445 28235 ft 300 kts 167°
2026-04-28 16:05 -57.89367 -64.27591 28233 ft 300 kts 167°
2026-04-28 16:05 -57.91203 -64.25736 28232 ft 299 kts 167°
2026-04-28 16:06 -57.93038 -64.23882 28229 ft 299 kts 167°
2026-04-28 16:06 -57.94871 -64.22026 28229 ft 299 kts 167°
2026-04-28 16:06 -57.96680 -64.20196 28228 ft 299 kts 167°
2026-04-28 16:06 -57.98511 -64.18339 28228 ft 299 kts 167°
2026-04-28 16:07 -58.00341 -64.16481 28222 ft 299 kts 167°
2026-04-28 16:07 -58.02176 -64.14668 28221 ft 297 kts 168°
2026-04-28 16:07 -58.05854 -64.11117 28221 ft 297 kts 168°
2026-04-28 16:08 -58.07685 -64.09316 28221 ft 297 kts 167°
2026-04-28 16:08 -58.09520 -64.07512 28262 ft 298 kts 168°
2026-04-28 16:08 -58.11344 -64.05726 28221 ft 298 kts 168°
2026-04-28 16:09 -58.15019 -64.02110 28222 ft 298 kts 168°
2026-04-28 16:09 -58.16855 -64.00302 28222 ft 297 kts 168°
2026-04-28 16:09 -58.18688 -63.98494 28221 ft 297 kts 168°
2026-04-28 16:10 -58.22351 -63.94875 28215 ft 297 kts 168°
2026-04-28 16:10 -58.24181 -63.93064 28214 ft 297 kts 168°
2026-04-28 16:10 -58.27814 -63.89463 28208 ft 296 kts 168°
2026-04-28 16:11 -58.31464 -63.85835 28208 ft 296 kts 168°
2026-04-28 16:11 -58.35118 -63.82198 28222 ft 297 kts 167°
2026-04-28 16:12 -58.38785 -63.78533 28211 ft 297 kts 167°
2026-04-28 16:12 -58.40613 -63.76703 28209 ft 297 kts 167°
2026-04-28 16:13 -58.44240 -63.73072 28205 ft 296 kts 167°
2026-04-28 16:13 -58.46062 -63.71242 28206 ft 296 kts 167°
2026-04-28 16:13 -58.49704 -63.67581 28201 ft 296 kts 167°
2026-04-28 16:14 -58.53341 -63.63915 28200 ft 295 kts 167°
2026-04-28 16:14 -58.56975 -63.60244 28199 ft 295 kts 167°
2026-04-28 16:15 -58.60580 -63.56597 28211 ft 296 kts 165°
2026-04-28 16:15 -58.62404 -63.54749 28199 ft 296 kts 165°
2026-04-28 16:15 -58.64221 -63.52896 28200 ft 295 kts 165°
2026-04-28 16:16 -58.67845 -63.49210 28196 ft 294 kts 165°
2026-04-28 16:16 -58.69652 -63.47369 28196 ft 294 kts 165°
2026-04-28 16:17 -58.73259 -63.43686 28195 ft 293 kts 165°
2026-04-28 16:17 -58.75035 -63.41869 28194 ft 293 kts 165°
2026-04-28 16:17 -58.76834 -63.40027 28193 ft 293 kts 165°
2026-04-28 16:17 -58.78632 -63.38183 28193 ft 293 kts 165°
2026-04-28 16:18 -58.80429 -63.36339 28190 ft 292 kts 165°
2026-04-28 16:18 -58.82221 -63.34498 28189 ft 292 kts 165°
2026-04-28 16:18 -58.84016 -63.32649 28189 ft 292 kts 165°
2026-04-28 16:18 -58.85813 -63.30800 28189 ft 292 kts 165°
2026-04-28 16:19 -58.87606 -63.28952 28189 ft 292 kts 165°
2026-04-28 16:19 -58.89399 -63.27099 28188 ft 292 kts 165°
2026-04-28 16:19 -58.91164 -63.25275 28182 ft 292 kts 165°
2026-04-28 16:19 -58.92956 -63.23420 28182 ft 292 kts 165°
2026-04-28 16:20 -58.94747 -63.21564 28182 ft 292 kts 165°
2026-04-28 16:20 -58.96538 -63.19705 28182 ft 292 kts 165°
2026-04-28 16:20 -58.98329 -63.17846 28182 ft 292 kts 165°
2026-04-28 16:20 -59.00120 -63.15984 28182 ft 292 kts 165°
2026-04-28 16:21 -59.01910 -63.14120 28182 ft 292 kts 165°
2026-04-28 16:21 -59.03676 -63.12278 28182 ft 292 kts 164°
2026-04-28 16:21 -59.05466 -63.10410 28185 ft 292 kts 164°
2026-04-28 16:21 -59.07256 -63.08540 28181 ft 292 kts 164°
2026-04-28 16:22 -59.09045 -63.06669 28181 ft 292 kts 164°
2026-04-28 16:22 -59.10836 -63.04796 28212 ft 293 kts 162°
2026-04-28 16:22 -59.12631 -63.02914 28185 ft 293 kts 161°
2026-04-28 16:22 -59.14421 -63.01030 28185 ft 292 kts 162°
2026-04-28 16:23 -59.16207 -62.99152 28185 ft 291 kts 162°
2026-04-28 16:23 -59.17986 -62.97281 28184 ft 291 kts 162°
2026-04-28 16:23 -59.19766 -62.95407 28185 ft 291 kts 162°
2026-04-28 16:23 -59.21520 -62.93556 28183 ft 290 kts 162°
2026-04-28 16:24 -59.23295 -62.91681 28183 ft 290 kts 162°
2026-04-28 16:24 -59.25069 -62.89806 28182 ft 290 kts 162°
2026-04-28 16:24 -59.26842 -62.87928 28182 ft 290 kts 162°
2026-04-28 16:24 -59.28614 -62.86051 28181 ft 290 kts 162°
2026-04-28 16:25 -59.30384 -62.84172 28180 ft 289 kts 162°
2026-04-28 16:25 -59.32154 -62.82292 28175 ft 289 kts 162°
2026-04-28 16:25 -59.33923 -62.80410 28174 ft 289 kts 162°
2026-04-28 16:25 -59.35668 -62.78552 28174 ft 289 kts 161°
2026-04-28 16:26 -59.37439 -62.76664 28177 ft 290 kts 160°
2026-04-28 16:26 -59.39208 -62.74775 28180 ft 290 kts 160°
2026-04-28 16:26 -59.40977 -62.72884 28180 ft 289 kts 160°
2026-04-28 16:26 -59.42747 -62.70990 28180 ft 289 kts 160°
2026-04-28 16:27 -59.44507 -62.69103 28179 ft 289 kts 160°
2026-04-28 16:27 -59.46270 -62.67214 28179 ft 288 kts 160°
2026-04-28 16:27 -59.49789 -62.63432 28178 ft 288 kts 160°
2026-04-28 16:28 -59.51524 -62.61565 28177 ft 288 kts 160°
2026-04-28 16:28 -59.52712 -62.60283 28172 ft 288 kts 160°
2026-04-28 16:28 -59.55037 -62.57775 28171 ft 288 kts 160°
2026-04-28 16:28 -59.56792 -62.55880 28171 ft 288 kts 160°
2026-04-28 16:29 -59.60302 -62.52081 28171 ft 288 kts 160°
2026-04-28 16:29 -59.63816 -62.48276 28170 ft 289 kts 159°
2026-04-28 16:30 -59.65570 -62.46361 28170 ft 289 kts 159°
2026-04-28 16:30 -59.67304 -62.44471 28170 ft 288 kts 159°
2026-04-28 16:30 -59.69061 -62.42559 28170 ft 288 kts 159°
2026-04-28 16:30 -59.70817 -62.40645 28169 ft 288 kts 159°
2026-04-28 16:31 -59.72571 -62.38728 28166 ft 288 kts 159°
2026-04-28 16:31 -59.74325 -62.36810 28166 ft 288 kts 159°
2026-04-28 16:31 -59.76078 -62.34891 28166 ft 288 kts 159°
2026-04-28 16:31 -59.77830 -62.32972 28166 ft 288 kts 159°
2026-04-28 16:32 -59.79582 -62.31049 28166 ft 288 kts 159°
2026-04-28 16:32 -59.83060 -62.27224 28163 ft 288 kts 159°
2026-04-28 16:32 -59.84810 -62.25297 28162 ft 288 kts 159°
2026-04-28 16:33 -59.86556 -62.23372 28162 ft 287 kts 159°
2026-04-28 16:33 -59.87149 -62.22717 28162 ft 287 kts 159°
2026-04-28 16:33 -59.90064 -62.19497 28164 ft 288 kts 158°
2026-04-28 16:33 -59.91813 -62.17560 28164 ft 288 kts 158°
2026-04-28 16:34 -59.93565 -62.15618 28161 ft 288 kts 158°
2026-04-28 16:34 -59.95317 -62.13675 28161 ft 288 kts 158°
2026-04-28 16:34 -59.97067 -62.11731 28164 ft 288 kts 158°
2026-04-28 16:34 -59.98793 -62.09811 28161 ft 288 kts 158°
2026-04-28 16:35 -60.00542 -62.07864 28160 ft 288 kts 158°
2026-04-28 16:35 -60.02291 -62.05920 28160 ft 288 kts 158°
2026-04-28 16:35 -60.04040 -62.03976 28154 ft 288 kts 158°
2026-04-28 16:35 -60.05788 -62.02029 28154 ft 288 kts 158°
2026-04-28 16:36 -60.07535 -62.00079 28154 ft 287 kts 158°
2026-04-28 16:36 -60.09282 -61.98128 28154 ft 287 kts 158°
2026-04-28 16:36 -60.11029 -61.96175 28154 ft 287 kts 158°
2026-04-28 16:36 -60.12775 -61.94220 28153 ft 287 kts 158°
2026-04-28 16:37 -60.14495 -61.92292 28155 ft 288 kts 158°
2026-04-28 16:37 -60.16245 -61.90329 28155 ft 288 kts 158°
2026-04-28 16:37 -60.17994 -61.88362 28157 ft 288 kts 158°
2026-04-28 16:38 -60.21488 -61.84428 28157 ft 288 kts 158°
2026-04-28 16:38 -60.23234 -61.82459 28157 ft 288 kts 158°
2026-04-28 16:38 -60.24980 -61.80489 28154 ft 288 kts 158°
2026-04-28 16:38 -60.26724 -61.78516 28154 ft 288 kts 158°
2026-04-28 16:39 -60.28445 -61.76568 28152 ft 288 kts 158°
2026-04-28 16:39 -60.30189 -61.74591 28152 ft 287 kts 158°
2026-04-28 16:39 -60.31932 -61.72613 28153 ft 287 kts 157°
2026-04-28 16:39 -60.33671 -61.70637 28150 ft 287 kts 158°
2026-04-28 16:40 -60.35414 -61.68655 28150 ft 287 kts 158°
2026-04-28 16:40 -60.37156 -61.66671 28149 ft 287 kts 157°
2026-04-28 16:40 -60.38898 -61.64684 28145 ft 287 kts 157°
2026-04-28 16:40 -60.40642 -61.62695 28149 ft 288 kts 157°
2026-04-28 16:41 -60.42388 -61.60697 28150 ft 288 kts 157°
2026-04-28 16:41 -60.44109 -61.58727 28150 ft 288 kts 157°
2026-04-28 16:41 -60.45853 -61.56728 28147 ft 288 kts 157°
2026-04-28 16:41 -60.47595 -61.54729 28148 ft 288 kts 157°
2026-04-28 16:42 -60.49337 -61.52727 28148 ft 288 kts 157°
2026-04-28 16:42 -60.51078 -61.50724 28148 ft 288 kts 157°
2026-04-28 16:42 -60.52819 -61.48718 28148 ft 288 kts 157°
2026-04-28 16:42 -60.54560 -61.46712 28149 ft 288 kts 157°
2026-04-28 16:43 -60.56300 -61.44702 28141 ft 288 kts 157°
2026-04-28 16:43 -60.58036 -61.42696 28141 ft 288 kts 157°
2026-04-28 16:43 -60.59752 -61.40708 28141 ft 288 kts 157°
2026-04-28 16:43 -60.61491 -61.38693 28141 ft 288 kts 157°
2026-04-28 16:44 -60.63230 -61.36676 28141 ft 288 kts 157°
2026-04-28 16:44 -60.64967 -61.34656 28141 ft 288 kts 157°
2026-04-28 16:44 -60.66708 -61.32632 28138 ft 288 kts 156°
2026-04-28 16:44 -60.68450 -61.30604 28138 ft 288 kts 156°
2026-04-28 16:45 -60.70190 -61.28572 28144 ft 288 kts 156°
2026-04-28 16:45 -60.71929 -61.26542 28142 ft 288 kts 156°
2026-04-28 16:45 -60.73668 -61.24509 28137 ft 288 kts 156°
2026-04-28 16:45 -60.75382 -61.22502 28142 ft 288 kts 156°
2026-04-28 16:46 -60.77119 -61.20466 28138 ft 288 kts 156°
2026-04-28 16:46 -60.78852 -61.18432 28134 ft 288 kts 156°
2026-04-28 16:46 -60.80588 -61.16393 28138 ft 288 kts 156°
2026-04-28 16:46 -60.82323 -61.14350 28136 ft 288 kts 156°
2026-04-28 16:47 -60.84058 -61.12306 28137 ft 288 kts 156°
2026-04-28 16:47 -60.85793 -61.10260 28129 ft 288 kts 156°
2026-04-28 16:47 -60.87528 -61.08211 28129 ft 288 kts 156°
2026-04-28 16:47 -60.89263 -61.06160 28134 ft 288 kts 156°
2026-04-28 16:48 -60.90974 -61.04134 28129 ft 288 kts 156°
2026-04-28 16:48 -60.92712 -61.02076 28136 ft 289 kts 156°
2026-04-28 16:48 -60.94452 -61.00007 28137 ft 289 kts 155°
2026-04-28 16:48 -60.96191 -60.97939 28129 ft 289 kts 156°
2026-04-28 16:49 -60.97929 -60.95871 28126 ft 288 kts 156°
2026-04-28 16:49 -60.99665 -60.93802 28126 ft 288 kts 156°
2026-04-28 16:49 -61.01401 -60.91732 28124 ft 288 kts 155°
2026-04-28 16:49 -61.03135 -60.89658 28124 ft 288 kts 155°
2026-04-28 16:50 -61.04866 -60.87589 28125 ft 288 kts 155°
2026-04-28 16:50 -61.06576 -60.85541 28126 ft 288 kts 155°
2026-04-28 16:50 -61.08309 -60.83462 28122 ft 288 kts 155°
2026-04-28 16:50 -61.10041 -60.81381 28122 ft 288 kts 155°
2026-04-28 16:51 -61.11773 -60.79300 28122 ft 288 kts 155°
2026-04-28 16:51 -61.13504 -60.77215 28122 ft 288 kts 155°
2026-04-28 16:51 -61.15236 -60.75129 28123 ft 288 kts 155°
2026-04-28 16:51 -61.16966 -60.73039 28121 ft 288 kts 155°
2026-04-28 16:52 -61.18698 -60.70949 28121 ft 289 kts 155°
2026-04-28 16:52 -61.20429 -60.68841 28122 ft 289 kts 153°
2026-04-28 16:52 -61.22019 -60.66333 28125 ft 292 kts 145°
2026-04-28 16:52 -61.23591 -60.63667 28125 ft 292 kts 146°
2026-04-28 16:53 -61.25173 -60.61035 28125 ft 291 kts 146°
2026-04-28 16:53 -61.26758 -60.58412 28125 ft 291 kts 146°
2026-04-28 16:53 -61.28336 -60.55782 28122 ft 291 kts 146°
2026-04-28 16:53 -61.29915 -60.53141 28127 ft 291 kts 146°
2026-04-28 16:54 -61.31494 -60.50499 28127 ft 291 kts 146°
2026-04-28 16:54 -61.33074 -60.47856 28127 ft 291 kts 146°
2026-04-28 16:54 -61.34652 -60.45208 28127 ft 291 kts 146°
2026-04-28 16:54 -61.35698 -60.43453 28127 ft 291 kts 146°
2026-04-28 16:55 -61.37785 -60.39943 28124 ft 291 kts 146°
2026-04-28 16:55 -61.39362 -60.37288 28124 ft 291 kts 146°
2026-04-28 16:55 -61.40938 -60.34631 28124 ft 291 kts 146°
2026-04-28 16:55 -61.42514 -60.31972 28124 ft 291 kts 146°
2026-04-28 16:56 -61.44088 -60.29309 28124 ft 291 kts 146°
2026-04-28 16:56 -61.45663 -60.26645 28123 ft 291 kts 146°
2026-04-28 16:56 -61.47237 -60.23978 28121 ft 291 kts 145°
2026-04-28 16:56 -61.48809 -60.21307 28121 ft 291 kts 145°
2026-04-28 16:57 -61.50379 -60.18640 28120 ft 291 kts 145°
2026-04-28 16:57 -61.51951 -60.15965 28120 ft 291 kts 145°
2026-04-28 16:57 -61.53502 -60.13322 28120 ft 291 kts 145°
2026-04-28 16:57 -61.55073 -60.10641 28120 ft 291 kts 145°
2026-04-28 16:58 -61.56643 -60.07958 28120 ft 291 kts 145°
2026-04-28 16:58 -61.58213 -60.05271 28120 ft 291 kts 145°
2026-04-28 16:58 -61.59783 -60.02581 28120 ft 291 kts 145°
2026-04-28 16:58 -61.61352 -59.99889 28120 ft 291 kts 145°
2026-04-28 16:59 -61.62921 -59.97195 28120 ft 291 kts 145°
2026-04-28 16:59 -61.64489 -59.94498 28120 ft 291 kts 145°
2026-04-28 16:59 -61.66057 -59.91797 28137 ft 292 kts 145°
2026-04-28 16:59 -61.67608 -59.89122 28113 ft 292 kts 145°
2026-04-28 17:00 -61.69174 -59.86416 28119 ft 292 kts 145°
2026-04-28 17:00 -61.70742 -59.83703 28120 ft 291 kts 145°
2026-04-28 17:00 -61.72308 -59.80990 28112 ft 291 kts 145°
2026-04-28 17:00 -61.73903 -59.78235 27476 ft 310 kts 144°
2026-04-28 17:01 -61.75656 -59.75223 26405 ft 338 kts 144°
2026-04-28 17:01 -61.77518 -59.71997 25377 ft 349 kts 144°
2026-04-28 17:01 -61.79498 -59.69038 24379 ft 348 kts 149°
2026-04-28 17:01 -61.81511 -59.66332 23519 ft 347 kts 151°
2026-04-28 17:02 -61.83565 -59.63686 22550 ft 343 kts 152°
2026-04-28 17:02 -61.84941 -59.61971 21788 ft 338 kts 152°
2026-04-28 17:02 -61.87594 -59.58665 20339 ft 329 kts 152°
2026-04-28 17:02 -61.89546 -59.56228 19293 ft 322 kts 152°
2026-04-28 17:03 -61.93326 -59.51498 17302 ft 309 kts 152°
2026-04-28 17:03 -61.95156 -59.49197 16193 ft 302 kts 152°
2026-04-28 17:03 -61.96944 -59.46955 15124 ft 296 kts 152°
2026-04-28 17:04 -62.00380 -59.42662 13256 ft 279 kts 152°
2026-04-28 17:04 -62.02031 -59.40604 12327 ft 272 kts 152°
2026-04-28 17:05 -62.05232 -59.36610 10446 ft 262 kts 152°
2026-04-28 17:05 -62.06787 -59.34660 9562 ft 257 kts 152°
2026-04-28 17:05 -62.08317 -59.32737 8644 ft 253 kts 152°
2026-04-28 17:06 -62.11279 -59.28991 6781 ft 245 kts 152°
2026-04-28 17:06 -62.12733 -59.27151 5884 ft 241 kts 152°
2026-04-28 17:06 -62.15566 -59.23561 4052 ft 232 kts 152°
2026-04-28 17:07 -62.16938 -59.21823 3121 ft 227 kts 152°
2026-04-28 17:07 -62.18290 -59.20114 2203 ft 223 kts 152°
2026-04-28 17:07 -62.19611 -59.18445 1282 ft 219 kts 152°
2026-04-28 17:07 -62.20905 -59.16820 597 ft 208 kts 151°
2026-04-28 17:08 -62.22135 -59.15246 591 ft 204 kts 150°
2026-04-28 17:08 -62.23349 -59.13702 586 ft 202 kts 150°
2026-04-28 17:08 -62.24146 -59.12697 583 ft 200 kts 151°
2026-04-28 17:08 -62.25657 -59.10718 923 ft 189 kts 140°
2026-04-28 17:09 -62.26258 -59.08269 1085 ft 191 kts 102°
2026-04-28 17:09 -62.26527 -59.05420 1087 ft 198 kts 100°
2026-04-28 17:09 -62.26796 -59.02503 1090 ft 200 kts 96°
2026-04-28 17:09 -62.26618 -58.99583 1087 ft 197 kts 72°
2026-04-28 17:10 -62.26361 -58.97711 1095 ft 198 kts 71°
2026-04-28 17:10 -62.25955 -58.94880 1095 ft 199 kts 66°
2026-04-28 17:10 -62.25361 -58.92211 1094 ft 198 kts 59°
2026-04-28 17:10 -62.24605 -58.89762 1095 ft 197 kts 50°
2026-04-28 17:11 -62.23525 -58.86634 1105 ft 197 kts 50°
2026-04-28 17:11 -62.22710 -58.84266 1105 ft 197 kts 50°
2026-04-28 17:11 -62.21893 -58.81916 1104 ft 196 kts 50°
2026-04-28 17:11 -62.21365 -58.80294 1098 ft 197 kts 58°
2026-04-28 17:12 -62.20855 -58.77592 1094 ft 199 kts 68°
2026-04-28 17:12 -62.20393 -58.74777 942 ft 201 kts 69°
2026-04-28 17:12 -62.19896 -58.71990 817 ft 200 kts 64°
2026-04-28 17:12 -62.19270 -58.69450 1106 ft 176 kts 57°
2026-04-28 17:13 -62.18509 -58.66434 1431 ft 179 kts 61°
2026-04-28 17:13 -62.18188 -58.64728 1470 ft 183 kts 65°
2026-04-28 17:13 -62.17622 -58.62309 1561 ft 182 kts 60°
2026-04-28 17:13 -62.17309 -58.59686 1685 ft 186 kts 78°
2026-04-28 17:14 -62.17068 -58.56964 1828 ft 187 kts 75°
2026-04-28 17:14 -62.16784 -58.54240 1959 ft 188 kts 74°
2026-04-28 17:14 -62.16507 -58.51496 2096 ft 189 kts 75°
2026-04-28 17:14 -62.16226 -58.48702 2100 ft 196 kts 75°
2026-04-28 17:15 -62.15936 -58.45854 2109 ft 196 kts 75°
2026-04-28 17:15 -62.15640 -58.42984 2112 ft 198 kts 75°
2026-04-28 17:15 -62.15270 -58.40165 2115 ft 196 kts 63°
2026-04-28 17:15 -62.14675 -58.37582 2367 ft 195 kts 59°
2026-04-28 17:16 -62.14049 -58.34968 2637 ft 200 kts 59°
2026-04-28 17:16 -62.13416 -58.32307 2905 ft 202 kts 59°
2026-04-28 17:16 -62.12793 -58.29653 3168 ft 204 kts 59°
2026-04-28 17:16 -62.12156 -58.26932 3437 ft 205 kts 59°
2026-04-28 17:17 -62.11518 -58.24211 3705 ft 204 kts 59°
2026-04-28 17:17 -62.10880 -58.21496 3972 ft 204 kts 59°
2026-04-28 17:17 -62.10241 -58.18783 4232 ft 205 kts 59°
2026-04-28 17:17 -62.09606 -58.16054 4498 ft 206 kts 59°
2026-04-28 17:18 -62.08968 -58.13307 4762 ft 207 kts 59°
2026-04-28 17:18 -62.08326 -58.10554 5029 ft 208 kts 59°
2026-04-28 17:18 -62.07692 -58.07821 5282 ft 209 kts 59°
2026-04-28 17:18 -62.07056 -58.05024 5549 ft 210 kts 59°
2026-04-28 17:19 -62.06419 -58.02215 5807 ft 211 kts 59°
2026-04-28 17:19 -62.05777 -57.99399 6062 ft 211 kts 59°
2026-04-28 17:19 -62.05131 -57.96586 6320 ft 212 kts 59°
2026-04-28 17:19 -62.04479 -57.93748 6580 ft 213 kts 59°
2026-04-28 17:20 -62.03832 -57.90925 6837 ft 212 kts 59°
2026-04-28 17:20 -62.03401 -57.89055 7009 ft 212 kts 59°
2026-04-28 17:20 -62.02528 -57.85273 7362 ft 213 kts 59°
2026-04-28 17:20 -62.01881 -57.82494 7640 ft 212 kts 59°
2026-04-28 17:21 -62.01231 -57.79689 7901 ft 211 kts 59°
2026-04-28 17:21 -62.00580 -57.76876 8172 ft 212 kts 59°
2026-04-28 17:21 -61.99925 -57.74056 8449 ft 213 kts 59°
2026-04-28 17:22 -61.98607 -57.68368 8997 ft 215 kts 59°
2026-04-28 17:22 -61.97940 -57.65506 9251 ft 217 kts 59°
2026-04-28 17:22 -61.97268 -57.62630 9508 ft 218 kts 59°
2026-04-28 17:23 -61.95921 -57.56884 10011 ft 219 kts 59°
2026-04-28 17:23 -61.95240 -57.53986 10269 ft 220 kts 59°
2026-04-28 17:23 -61.94553 -57.51076 10529 ft 221 kts 59°
2026-04-28 17:23 -61.93861 -57.48162 10788 ft 221 kts 59°
2026-04-28 17:24 -61.93169 -57.45237 11041 ft 222 kts 59°
2026-04-28 17:24 -61.92468 -57.42252 11116 ft 231 kts 59°
2026-04-28 17:24 -61.91735 -57.39140 11122 ft 240 kts 59°
2026-04-28 17:24 -61.90977 -57.35946 11129 ft 245 kts 59°
2026-04-28 17:25 -61.90214 -57.32745 11135 ft 248 kts 59°
2026-04-28 17:25 -61.88637 -57.26178 11137 ft 251 kts 59°
2026-04-28 17:25 -61.87841 -57.22876 11136 ft 252 kts 59°
2026-04-28 17:26 -61.87044 -57.19569 11137 ft 252 kts 59°
2026-04-28 17:26 -61.86246 -57.16269 11136 ft 252 kts 59°
2026-04-28 17:26 -61.85445 -57.12953 11136 ft 252 kts 59°
2026-04-28 17:26 -61.84644 -57.09655 11139 ft 252 kts 59°
2026-04-28 17:27 -61.83843 -57.06350 11139 ft 252 kts 59°
2026-04-28 17:27 -61.83052 -57.03091 11139 ft 252 kts 59°
2026-04-28 17:27 -61.82251 -56.99789 11139 ft 252 kts 59°
2026-04-28 17:27 -61.81447 -56.96491 11139 ft 252 kts 59°
2026-04-28 17:28 -61.80645 -56.93195 11139 ft 252 kts 59°
2026-04-28 17:28 -61.79039 -56.86610 11138 ft 252 kts 58°
2026-04-28 17:28 -61.78237 -56.83320 11127 ft 252 kts 58°
2026-04-28 17:29 -61.77443 -56.80018 11127 ft 252 kts 58°
2026-04-28 17:29 -61.76648 -56.76717 11127 ft 252 kts 58°
2026-04-28 17:29 -61.75856 -56.73425 11127 ft 252 kts 58°
2026-04-28 17:30 -61.74278 -56.66874 11129 ft 252 kts 58°
2026-04-28 17:30 -61.72690 -56.60287 11134 ft 252 kts 58°
2026-04-28 17:30 -61.71895 -56.57000 11133 ft 252 kts 58°
2026-04-28 17:31 -61.71100 -56.53715 11135 ft 251 kts 58°
2026-04-28 17:31 -61.69508 -56.47153 11134 ft 251 kts 58°
2026-04-28 17:32 -61.67925 -56.40648 11134 ft 251 kts 58°
2026-04-28 17:32 -61.67126 -56.37377 11134 ft 251 kts 58°
2026-04-28 17:32 -61.66328 -56.34108 11139 ft 251 kts 58°
2026-04-28 17:32 -61.65530 -56.30843 11139 ft 251 kts 58°
2026-04-28 17:33 -61.64730 -56.27581 11139 ft 251 kts 58°
2026-04-28 17:33 -61.63933 -56.24326 11138 ft 251 kts 58°
2026-04-28 17:33 -61.63142 -56.21065 11141 ft 250 kts 58°
2026-04-28 17:33 -61.62623 -56.18896 11141 ft 251 kts 58°
2026-04-28 17:34 -61.61586 -56.14560 11134 ft 251 kts 58°
2026-04-28 17:34 -61.60801 -56.11283 11146 ft 251 kts 58°
2026-04-28 17:34 -61.60016 -56.08004 11146 ft 251 kts 58°
2026-04-28 17:34 -61.59231 -56.04728 11146 ft 251 kts 58°
2026-04-28 17:35 -61.58444 -56.01453 11146 ft 251 kts 58°
2026-04-28 17:35 -61.57656 -55.98182 11146 ft 251 kts 58°
2026-04-28 17:35 -61.56869 -55.94910 11146 ft 251 kts 58°
2026-04-28 17:35 -61.56082 -55.91642 11146 ft 251 kts 58°
2026-04-28 17:36 -61.55294 -55.88376 11146 ft 251 kts 58°
2026-04-28 17:36 -61.54505 -55.85113 11151 ft 251 kts 58°
2026-04-28 17:36 -61.53729 -55.81901 11148 ft 251 kts 58°
2026-04-28 17:36 -61.52941 -55.78646 11146 ft 248 kts 58°
2026-04-28 17:37 -61.52185 -55.75469 11150 ft 240 kts 58°
2026-04-28 17:37 -61.51449 -55.72384 11150 ft 234 kts 58°
2026-04-28 17:37 -61.50725 -55.69351 11148 ft 231 kts 58°
2026-04-28 17:37 -61.50008 -55.66347 11149 ft 230 kts 58°
2026-04-28 17:38 -61.49296 -55.63359 11149 ft 229 kts 58°
2026-04-28 17:38 -61.48600 -55.60425 11156 ft 228 kts 57°
2026-04-28 17:38 -61.47906 -55.57448 11156 ft 228 kts 57°
2026-04-28 17:38 -61.47213 -55.54473 11155 ft 227 kts 57°
2026-04-28 17:39 -61.46524 -55.51495 11164 ft 225 kts 58°
2026-04-28 17:39 -61.45882 -55.48640 11022 ft 214 kts 58°
2026-04-28 17:39 -61.44563 -55.42878 9982 ft 222 kts 58°
2026-04-28 17:40 -61.43893 -55.39977 9476 ft 221 kts 58°
2026-04-28 17:40 -61.43230 -55.37107 8979 ft 219 kts 58°
2026-04-28 17:40 -61.42570 -55.34262 8428 ft 217 kts 58°
2026-04-28 17:40 -61.41920 -55.31485 7887 ft 215 kts 58°
2026-04-28 17:41 -61.41266 -55.28697 7353 ft 213 kts 58°
2026-04-28 17:41 -61.40612 -55.25932 6820 ft 211 kts 58°
2026-04-28 17:41 -61.39964 -55.23202 6212 ft 212 kts 58°
2026-04-28 17:41 -61.39305 -55.20430 5634 ft 211 kts 58°
2026-04-28 17:42 -61.38665 -55.17712 5103 ft 207 kts 58°
2026-04-28 17:42 -61.38039 -55.15035 4569 ft 204 kts 59°
2026-04-28 17:42 -61.37420 -55.12391 4056 ft 200 kts 56°
2026-04-28 17:42 -61.36477 -55.10528 3516 ft 185 kts 18°
2026-04-28 17:43 -61.35302 -55.09567 3181 ft 175 kts 18°
2026-04-28 17:43 -61.34248 -55.08570 3168 ft 159 kts 17°
2026-04-28 17:43 -61.33240 -55.07614 2945 ft 161 kts 17°
2026-04-28 17:43 -61.32209 -55.06645 2683 ft 164 kts 17°
2026-04-28 17:44 -61.31697 -55.06166 2553 ft 165 kts 18°
2026-04-28 17:44 -61.30658 -55.05178 2276 ft 164 kts 17°
2026-04-28 17:44 -61.29640 -55.04189 2164 ft 157 kts 17°
2026-04-28 17:44 -61.28639 -55.03348 2027 ft 152 kts
2026-04-28 17:45 -61.27624 -55.02948 1893 ft 149 kts
2026-04-28 17:45 -61.26595 -55.02660 1766 ft 149 kts
2026-04-28 17:45 -61.25571 -55.02372 1681 ft 146 kts
2026-04-28 17:45 -61.24585 -55.02223 1677 ft 140 kts 355°
2026-04-28 17:46 -61.23613 -55.02132 1680 ft 139 kts 355°
2026-04-28 17:46 -61.22653 -55.02039 1676 ft 138 kts 355°
2026-04-28 17:46 -61.21702 -55.02015 1675 ft 133 kts 342°
2026-04-28 17:46 -61.20959 -55.02986 1686 ft 127 kts 316°
2026-04-28 17:47 -61.20285 -55.04171 1686 ft 127 kts 314°
2026-04-28 17:47 -61.19724 -55.05540 1688 ft 126 kts 307°
2026-04-28 17:47 -61.19177 -55.06952 1689 ft 126 kts 307°
2026-04-28 17:47 -61.18813 -55.07893 1690 ft 126 kts 307°
2026-04-28 17:48 -61.18096 -55.09814 1692 ft 126 kts 304°
2026-04-28 17:48 -61.17613 -55.11325 1689 ft 125 kts 303°
2026-04-28 17:48 -61.17136 -55.12820 1688 ft 125 kts 303°
2026-04-28 17:48 -61.16614 -55.14487 1707 ft 151 kts 302°
2026-04-28 17:49 -61.16032 -55.16342 2087 ft 152 kts 302°
2026-04-28 17:49 -61.15460 -55.18152 2475 ft 153 kts 303°
2026-04-28 17:49 -61.14873 -55.20005 2868 ft 155 kts 303°
2026-04-28 17:49 -61.14277 -55.21862 3288 ft 155 kts 303°
2026-04-28 17:50 -61.13617 -55.23628 3678 ft 156 kts 311°
2026-04-28 17:50 -61.12893 -55.25300 4098 ft 156 kts 309°
2026-04-28 17:50 -61.12191 -55.27010 4480 ft 157 kts 309°
2026-04-28 17:50 -61.11486 -55.28748 4847 ft 158 kts 308°
2026-04-28 17:51 -61.10778 -55.30491 5243 ft 158 kts 308°
2026-04-28 17:51 -61.10069 -55.32238 5624 ft 159 kts 309°
2026-04-28 17:51 -61.09367 -55.33967 6008 ft 159 kts 309°
2026-04-28 17:51 -61.08654 -55.35720 6399 ft 160 kts 309°
2026-04-28 17:52 -61.07937 -55.37482 6805 ft 161 kts 309°
2026-04-28 17:52 -61.07218 -55.39249 7231 ft 161 kts 309°
2026-04-28 17:52 -61.05768 -55.42803 7992 ft 162 kts 310°
2026-04-28 17:53 -61.05041 -55.44584 8403 ft 162 kts 310°
2026-04-28 17:53 -61.04313 -55.46365 8811 ft 163 kts 310°
2026-04-28 17:53 -61.03581 -55.48158 9173 ft 164 kts 310°
2026-04-28 17:53 -61.02853 -55.49937 9498 ft 165 kts 310°
2026-04-28 17:54 -61.02111 -55.51750 9823 ft 166 kts 310°
2026-04-28 17:54 -61.01364 -55.53574 10139 ft 167 kts 309°
2026-04-28 17:54 -61.00611 -55.55409 10463 ft 168 kts 309°
2026-04-28 17:54 -60.99854 -55.57255 10784 ft 169 kts 309°
2026-04-28 17:55 -60.99091 -55.59110 11104 ft 170 kts 309°
2026-04-28 17:55 -60.98321 -55.60993 11354 ft 177 kts 308°
2026-04-28 17:55 -60.97520 -55.62931 11688 ft 177 kts 308°
2026-04-28 17:55 -60.96727 -55.64857 12014 ft 177 kts 308°
2026-04-28 17:56 -60.95939 -55.66769 12331 ft 178 kts 308°
2026-04-28 17:56 -60.95136 -55.68715 12649 ft 179 kts 308°
2026-04-28 17:56 -60.94330 -55.70669 12966 ft 179 kts 308°
2026-04-28 17:56 -60.93519 -55.72629 13249 ft 180 kts 308°
2026-04-28 17:57 -60.92706 -55.74597 13527 ft 181 kts 308°
2026-04-28 17:57 -60.91888 -55.76571 13802 ft 182 kts 308°
2026-04-28 17:57 -60.91068 -55.78553 14065 ft 182 kts 308°
2026-04-28 17:57 -60.90243 -55.80543 14335 ft 183 kts 308°
2026-04-28 17:58 -60.89425 -55.82513 14602 ft 184 kts 308°
2026-04-28 17:58 -60.88594 -55.84515 14874 ft 184 kts 308°
2026-04-28 17:58 -60.87759 -55.86522 15143 ft 185 kts 308°
2026-04-28 17:58 -60.86923 -55.88532 15415 ft 186 kts 308°
2026-04-28 17:59 -60.86080 -55.90555 15679 ft 186 kts 308°
2026-04-28 17:59 -60.85238 -55.92577 15941 ft 187 kts 308°
2026-04-28 17:59 -60.84387 -55.94615 16203 ft 188 kts 308°
2026-04-28 17:59 -60.83537 -55.96651 16462 ft 189 kts 308°
2026-04-28 18:00 -60.82693 -55.98671 16720 ft 189 kts 308°
2026-04-28 18:00 -60.81836 -56.00722 16978 ft 190 kts 308°
2026-04-28 18:00 -60.80974 -56.02778 17234 ft 191 kts 308°
2026-04-28 18:00 -60.80109 -56.04841 17489 ft 191 kts 308°
2026-04-28 18:01 -60.79241 -56.06911 17708 ft 192 kts 308°
2026-04-28 18:01 -60.78369 -56.08989 17915 ft 193 kts 308°
2026-04-28 18:01 -60.77494 -56.11069 18125 ft 193 kts 308°
2026-04-28 18:01 -60.76619 -56.13151 18337 ft 194 kts 308°
2026-04-28 18:02 -60.75739 -56.15242 18549 ft 194 kts 308°
2026-04-28 18:02 -60.74867 -56.17311 18755 ft 195 kts 308°
2026-04-28 18:02 -60.73981 -56.19411 18960 ft 195 kts 308°
2026-04-28 18:02 -60.73093 -56.21515 19172 ft 196 kts 308°
2026-04-28 18:03 -60.72202 -56.23624 19376 ft 196 kts 308°
2026-04-28 18:03 -60.71307 -56.25739 19581 ft 197 kts 308°
2026-04-28 18:03 -60.70411 -56.27858 19798 ft 197 kts 308°
2026-04-28 18:03 -60.69511 -56.29978 19983 ft 197 kts 307°
2026-04-28 18:04 -60.68618 -56.32086 20201 ft 197 kts 307°
2026-04-28 18:04 -60.67718 -56.34206 20398 ft 197 kts 307°
2026-04-28 18:04 -60.66831 -56.36293 20591 ft 198 kts 307°
2026-04-28 18:04 -60.65927 -56.38419 20785 ft 199 kts 307°
2026-04-28 18:05 -60.65020 -56.40549 20977 ft 199 kts 307°
2026-04-28 18:05 -60.64417 -56.41965 21105 ft 200 kts 307°
2026-04-28 18:05 -60.63197 -56.44826 21361 ft 200 kts 307°
2026-04-28 18:05 -60.62281 -56.46973 21543 ft 201 kts 307°
2026-04-28 18:06 -60.61361 -56.49124 21728 ft 202 kts 307°
2026-04-28 18:06 -60.60439 -56.51280 21913 ft 202 kts 307°
2026-04-28 18:06 -60.59527 -56.53413 22094 ft 203 kts 307°
2026-04-28 18:06 -60.58598 -56.55578 22273 ft 203 kts 307°
2026-04-28 18:07 -60.57670 -56.57745 22449 ft 204 kts 307°
2026-04-28 18:07 -60.56735 -56.59921 22619 ft 205 kts 307°
2026-04-28 18:07 -60.55798 -56.62103 22789 ft 205 kts 307°
2026-04-28 18:07 -60.54856 -56.64292 22932 ft 206 kts 307°
2026-04-28 18:08 -60.53912 -56.66484 23069 ft 206 kts 307°
2026-04-28 18:08 -60.52965 -56.68681 23211 ft 207 kts 307°
2026-04-28 18:08 -60.52028 -56.70854 23348 ft 208 kts 307°
2026-04-28 18:08 -60.51077 -56.73057 23483 ft 208 kts 307°
2026-04-28 18:09 -60.50120 -56.75270 23621 ft 209 kts 307°
2026-04-28 18:09 -60.49161 -56.77488 23758 ft 209 kts 307°
2026-04-28 18:09 -60.48198 -56.79712 23894 ft 210 kts 307°
2026-04-28 18:09 -60.47232 -56.81940 24027 ft 211 kts 307°
2026-04-28 18:10 -60.46263 -56.84174 24157 ft 211 kts 307°
2026-04-28 18:10 -60.45290 -56.86413 24289 ft 212 kts 307°
2026-04-28 18:10 -60.44315 -56.88657 24418 ft 213 kts 307°
2026-04-28 18:10 -60.43336 -56.90905 24549 ft 213 kts 307°
2026-04-28 18:11 -60.42368 -56.93129 24669 ft 214 kts 307°
2026-04-28 18:11 -60.41383 -56.95386 24788 ft 214 kts 307°
2026-04-28 18:11 -60.40396 -56.97650 24913 ft 215 kts 307°
2026-04-28 18:11 -60.39408 -56.99911 25023 ft 215 kts 307°
2026-04-28 18:12 -60.38414 -57.02184 25135 ft 216 kts 307°
2026-04-28 18:12 -60.37417 -57.04459 25253 ft 216 kts 307°
2026-04-28 18:12 -60.36419 -57.06739 25367 ft 217 kts 307°
2026-04-28 18:12 -60.35417 -57.09023 25476 ft 217 kts 307°
2026-04-28 18:13 -60.34426 -57.11281 25584 ft 218 kts 307°
2026-04-28 18:13 -60.33419 -57.13572 25689 ft 218 kts 307°
2026-04-28 18:13 -60.32411 -57.15861 25789 ft 219 kts 307°
2026-04-28 18:13 -60.31398 -57.18161 25891 ft 219 kts 307°
2026-04-28 18:14 -60.30383 -57.20463 25995 ft 220 kts 307°
2026-04-28 18:14 -60.29365 -57.22770 26091 ft 220 kts 308°
2026-04-28 18:14 -60.28345 -57.25080 26164 ft 221 kts 307°
2026-04-28 18:14 -60.27323 -57.27390 26265 ft 221 kts 307°
2026-04-28 18:15 -60.26300 -57.29702 26355 ft 221 kts 307°
2026-04-28 18:15 -60.25288 -57.31987 26455 ft 222 kts 307°
2026-04-28 18:15 -60.24259 -57.34305 26548 ft 222 kts 307°
2026-04-28 18:15 -60.23228 -57.36627 26640 ft 223 kts 307°
2026-04-28 18:16 -60.22194 -57.38953 26746 ft 223 kts 307°
2026-04-28 18:16 -60.21158 -57.41282 26827 ft 224 kts 307°
2026-04-28 18:16 -60.20119 -57.43614 26896 ft 224 kts 307°
2026-04-28 18:16 -60.19079 -57.45949 26982 ft 224 kts 307°
2026-04-28 18:17 -60.18035 -57.48287 27055 ft 225 kts 307°
2026-04-28 18:17 -60.16990 -57.50627 27127 ft 225 kts 307°
2026-04-28 18:17 -60.15956 -57.52937 27193 ft 226 kts 307°
2026-04-28 18:17 -60.14903 -57.55290 27193 ft 228 kts 307°
2026-04-28 18:18 -60.13836 -57.57671 27196 ft 230 kts 308°
2026-04-28 18:18 -60.12767 -57.60042 27193 ft 228 kts 308°
2026-04-28 18:18 -60.11708 -57.62406 27194 ft 228 kts 307°
2026-04-28 18:18 -60.11006 -57.63974 27197 ft 228 kts 308°
2026-04-28 18:19 -60.09583 -57.67135 27195 ft 228 kts 308°
2026-04-28 18:19 -60.08518 -57.69499 27199 ft 228 kts 308°
2026-04-28 18:19 -60.07453 -57.71861 27196 ft 228 kts 308°
2026-04-28 18:19 -60.06405 -57.74182 27193 ft 227 kts 307°
2026-04-28 18:20 -60.05344 -57.76531 27193 ft 227 kts 307°
2026-04-28 18:20 -60.04282 -57.78878 27192 ft 228 kts 307°
2026-04-28 18:20 -60.03222 -57.81220 27192 ft 228 kts 307°
2026-04-28 18:20 -60.02157 -57.83571 27198 ft 228 kts 307°
2026-04-28 18:21 -60.01092 -57.85914 27198 ft 228 kts 307°
2026-04-28 18:21 -60.00028 -57.88258 27197 ft 228 kts 307°
2026-04-28 18:21 -59.98966 -57.90594 27198 ft 228 kts 307°
2026-04-28 18:21 -59.97914 -57.92905 27197 ft 228 kts 307°
2026-04-28 18:22 -59.96848 -57.95245 27197 ft 228 kts 307°
2026-04-28 18:22 -59.95781 -57.97584 27197 ft 228 kts 307°
2026-04-28 18:22 -59.94712 -57.99926 27211 ft 228 kts 307°
2026-04-28 18:22 -59.93642 -58.02267 27215 ft 228 kts 307°
2026-04-28 18:23 -59.92572 -58.04604 27212 ft 228 kts 307°
2026-04-28 18:23 -59.91503 -58.06939 27211 ft 228 kts 307°
2026-04-28 18:23 -59.90434 -58.09270 27213 ft 228 kts 307°
2026-04-28 18:23 -59.89366 -58.11600 27213 ft 228 kts 308°
2026-04-28 18:24 -59.88311 -58.13896 27210 ft 228 kts 308°
2026-04-28 18:24 -59.87590 -58.15464 27213 ft 228 kts 308°
2026-04-28 18:24 -59.86172 -58.18545 27180 ft 228 kts 307°
2026-04-28 18:24 -59.85107 -58.20856 27203 ft 227 kts 307°
2026-04-28 18:25 -59.84039 -58.23171 27202 ft 227 kts 307°
2026-04-28 18:25 -59.82970 -58.25485 27201 ft 227 kts 307°
2026-04-28 18:25 -59.81901 -58.27800 27200 ft 227 kts 307°
2026-04-28 18:26 -59.79774 -58.32393 27200 ft 227 kts 307°
2026-04-28 18:26 -59.78703 -58.34703 27200 ft 227 kts 307°
2026-04-28 18:26 -59.77631 -58.37013 27206 ft 227 kts 307°
2026-04-28 18:26 -59.76559 -58.39322 27205 ft 227 kts 307°
2026-04-28 18:27 -59.75486 -58.41628 27210 ft 227 kts 307°
2026-04-28 18:27 -59.74415 -58.43929 27210 ft 227 kts 307°
2026-04-28 18:27 -59.73342 -58.46234 27207 ft 227 kts 307°
2026-04-28 18:27 -59.72267 -58.48536 27208 ft 228 kts 307°
2026-04-28 18:28 -59.71207 -58.50808 27206 ft 228 kts 307°
2026-04-28 18:28 -59.70131 -58.53108 27207 ft 228 kts 307°
2026-04-28 18:28 -59.69056 -58.55408 27211 ft 228 kts 307°
2026-04-28 18:28 -59.67979 -58.57706 27210 ft 228 kts 308°
2026-04-28 18:29 -59.66902 -58.60002 27209 ft 228 kts 308°
2026-04-28 18:29 -59.65825 -58.62298 27209 ft 228 kts 308°
2026-04-28 18:29 -59.64747 -58.64592 27184 ft 227 kts 307°
2026-04-28 18:29 -59.63674 -58.66872 27210 ft 227 kts 307°
2026-04-28 18:30 -59.62615 -58.69125 27213 ft 227 kts 307°
2026-04-28 18:30 -59.62253 -58.69894 27213 ft 227 kts 307°
2026-04-28 18:30 -59.60465 -58.73685 27213 ft 227 kts 307°
2026-04-28 18:30 -59.59387 -58.75967 27211 ft 227 kts 307°
2026-04-28 18:31 -59.58309 -58.78249 27213 ft 227 kts 307°
2026-04-28 18:31 -59.57229 -58.80531 27212 ft 227 kts 307°
2026-04-28 18:31 -59.56149 -58.82812 27212 ft 228 kts 307°
2026-04-28 18:31 -59.55068 -58.85093 27213 ft 228 kts 307°
2026-04-28 18:32 -59.53986 -58.87372 27212 ft 228 kts 307°
2026-04-28 18:32 -59.52918 -58.89621 27208 ft 228 kts 307°
2026-04-28 18:32 -59.51834 -58.91898 27213 ft 228 kts 307°
2026-04-28 18:32 -59.50751 -58.94175 27213 ft 228 kts 307°
2026-04-28 18:33 -59.49667 -58.96450 27212 ft 228 kts 307°
2026-04-28 18:33 -59.48583 -58.98724 27213 ft 228 kts 307°
2026-04-28 18:33 -59.47498 -59.00996 27212 ft 228 kts 307°
2026-04-28 18:33 -59.46413 -59.03267 27212 ft 228 kts 307°
2026-04-28 18:34 -59.45328 -59.05537 27212 ft 228 kts 307°
2026-04-28 18:34 -59.44243 -59.07800 27210 ft 228 kts 307°
2026-04-28 18:34 -59.43172 -59.10033 27215 ft 227 kts 307°
2026-04-28 18:34 -59.42090 -59.12290 27216 ft 227 kts 307°
2026-04-28 18:35 -59.41007 -59.14546 27216 ft 227 kts 307°
2026-04-28 18:35 -59.39922 -59.16802 27216 ft 227 kts 307°
2026-04-28 18:35 -59.38837 -59.19057 27216 ft 227 kts 307°
2026-04-28 18:35 -59.37751 -59.21312 27216 ft 227 kts 307°
2026-04-28 18:36 -59.36664 -59.23565 27216 ft 227 kts 307°
2026-04-28 18:36 -59.35576 -59.25817 27215 ft 227 kts 307°
2026-04-28 18:36 -59.34504 -59.28039 27218 ft 227 kts 307°
2026-04-28 18:36 -59.33415 -59.30289 27218 ft 227 kts 307°
2026-04-28 18:37 -59.32326 -59.32538 27218 ft 227 kts 307°
2026-04-28 18:37 -59.31237 -59.34785 27218 ft 227 kts 307°
2026-04-28 18:37 -59.30148 -59.37032 27218 ft 227 kts 307°
2026-04-28 18:37 -59.29060 -59.39271 27218 ft 228 kts 307°
2026-04-28 18:38 -59.27970 -59.41515 27218 ft 228 kts 307°
2026-04-28 18:38 -59.26879 -59.43758 27218 ft 228 kts 307°
2026-04-28 18:38 -59.25787 -59.45999 27223 ft 228 kts 307°
2026-04-28 18:38 -59.24709 -59.48209 27223 ft 228 kts 307°
2026-04-28 18:39 -59.23617 -59.50448 27223 ft 228 kts 307°
2026-04-28 18:39 -59.22524 -59.52685 27223 ft 228 kts 307°
2026-04-28 18:39 -59.21435 -59.54914 27226 ft 226 kts 306°
2026-04-28 18:39 -59.20348 -59.57132 27225 ft 226 kts 306°
2026-04-28 18:40 -59.19262 -59.59350 27225 ft 226 kts 306°
2026-04-28 18:40 -59.18175 -59.61565 27224 ft 226 kts 306°
2026-04-28 18:40 -59.17088 -59.63780 27227 ft 226 kts 306°
2026-04-28 18:40 -59.16001 -59.65993 27228 ft 226 kts 306°
2026-04-28 18:41 -59.14928 -59.68174 27227 ft 226 kts 306°
2026-04-28 18:41 -59.13843 -59.70379 27226 ft 226 kts 306°
2026-04-28 18:41 -59.12754 -59.72587 27227 ft 226 kts 306°
2026-04-28 18:41 -59.11666 -59.74793 27220 ft 226 kts 306°
2026-04-28 18:42 -59.10577 -59.76999 27220 ft 226 kts 307°
2026-04-28 18:42 -59.09487 -59.79203 27221 ft 226 kts 307°
2026-04-28 18:42 -59.08398 -59.81406 27223 ft 226 kts 307°
2026-04-28 18:42 -59.07307 -59.83607 27224 ft 226 kts 307°
2026-04-28 18:43 -59.06231 -59.85779 27223 ft 226 kts 307°
2026-04-28 18:43 -59.05139 -59.87978 27223 ft 226 kts 307°
2026-04-28 18:43 -59.04048 -59.90176 27223 ft 226 kts 307°
2026-04-28 18:43 -59.02955 -59.92373 27223 ft 226 kts 307°
2026-04-28 18:44 -59.01863 -59.94569 27223 ft 226 kts 307°
2026-04-28 18:44 -58.99685 -59.98936 27227 ft 224 kts 305°
2026-04-28 18:44 -58.98601 -60.01110 27222 ft 224 kts 305°
2026-04-28 18:45 -58.97518 -60.03279 27230 ft 224 kts 305°
2026-04-28 18:45 -58.96434 -60.05446 27225 ft 224 kts 305°
2026-04-28 18:45 -58.95364 -60.07582 27226 ft 224 kts 305°
2026-04-28 18:45 -58.94281 -60.09745 27225 ft 224 kts 305°
2026-04-28 18:46 -58.93197 -60.11906 27229 ft 224 kts 305°
2026-04-28 18:46 -58.92114 -60.14065 27228 ft 224 kts 305°
2026-04-28 18:46 -58.91030 -60.16223 27230 ft 224 kts 305°
2026-04-28 18:46 -58.89945 -60.18378 27246 ft 223 kts 305°
2026-04-28 18:47 -58.88862 -60.20529 27242 ft 223 kts 305°
2026-04-28 18:47 -58.87780 -60.22676 27242 ft 223 kts 305°
2026-04-28 18:47 -58.86699 -60.24821 27247 ft 223 kts 305°
2026-04-28 18:47 -58.85620 -60.26957 27243 ft 223 kts 305°
2026-04-28 18:48 -58.84553 -60.29068 27243 ft 222 kts 305°
2026-04-28 18:48 -58.83472 -60.31206 27250 ft 222 kts 306°
2026-04-28 18:48 -58.82390 -60.33342 27249 ft 222 kts 305°
2026-04-28 18:48 -58.81309 -60.35477 27249 ft 222 kts 306°
2026-04-28 18:49 -58.80227 -60.37610 27251 ft 222 kts 306°
2026-04-28 18:49 -58.79862 -60.38328 27251 ft 222 kts 306°
2026-04-28 18:49 -58.78069 -60.41855 27237 ft 220 kts 304°
2026-04-28 18:49 -58.76997 -60.43963 27240 ft 220 kts 304°
2026-04-28 18:50 -58.75941 -60.46037 27237 ft 219 kts 304°
2026-04-28 18:50 -58.74873 -60.48134 27235 ft 219 kts 304°
2026-04-28 18:50 -58.73805 -60.50226 27241 ft 219 kts 304°
2026-04-28 18:50 -58.72738 -60.52316 27241 ft 219 kts 304°
2026-04-28 18:51 -58.71675 -60.54398 27238 ft 219 kts 304°
2026-04-28 18:51 -58.70609 -60.56481 27235 ft 218 kts 304°
2026-04-28 18:51 -58.69543 -60.58563 27228 ft 218 kts 304°
2026-04-28 18:51 -58.68477 -60.60642 27231 ft 218 kts 304°
2026-04-28 18:52 -58.67426 -60.62694 27231 ft 218 kts 304°
2026-04-28 18:52 -58.66359 -60.64771 27236 ft 218 kts 304°
2026-04-28 18:52 -58.65292 -60.66846 27230 ft 218 kts 304°
2026-04-28 18:52 -58.64226 -60.68919 27230 ft 218 kts 304°
2026-04-28 18:53 -58.63159 -60.70991 27232 ft 218 kts 304°
2026-04-28 18:53 -58.62092 -60.73062 27232 ft 218 kts 304°
2026-04-28 18:53 -58.61025 -60.75130 27232 ft 218 kts 304°
2026-04-28 18:53 -58.59958 -60.77198 27235 ft 218 kts 304°
2026-04-28 18:54 -58.58890 -60.79264 27234 ft 218 kts 304°
2026-04-28 18:54 -58.57839 -60.81297 27222 ft 218 kts 304°
2026-04-28 18:54 -58.56781 -60.83333 27242 ft 213 kts 305°
2026-04-28 18:54 -58.55742 -60.85333 27245 ft 210 kts 304°
2026-04-28 18:55 -58.54716 -60.87316 27244 ft 209 kts 304°
2026-04-28 18:55 -58.54040 -60.88621 27243 ft 208 kts 304°
2026-04-28 18:55 -58.52684 -60.91234 27241 ft 206 kts 304°
2026-04-28 18:55 -58.51674 -60.93176 27239 ft 205 kts 304°
2026-04-28 18:56 -58.50681 -60.95084 27238 ft 205 kts 304°
2026-04-28 18:56 -58.49677 -60.97011 27239 ft 204 kts 304°
2026-04-28 18:56 -58.48676 -60.98932 27238 ft 204 kts 304°
2026-04-28 18:56 -58.47677 -61.00847 27239 ft 203 kts 304°
2026-04-28 18:57 -58.46679 -61.02758 27239 ft 203 kts 304°
2026-04-28 18:57 -58.45683 -61.04663 27239 ft 203 kts 304°
2026-04-28 18:57 -58.44687 -61.06569 27239 ft 203 kts 304°
2026-04-28 18:57 -58.43689 -61.08473 27238 ft 203 kts 304°
2026-04-28 18:58 -58.42693 -61.10375 27240 ft 202 kts 304°
2026-04-28 18:58 -58.41698 -61.12272 27240 ft 202 kts 304°
2026-04-28 18:58 -58.40716 -61.14144 27239 ft 202 kts 304°
2026-04-28 18:58 -58.39719 -61.16042 27236 ft 202 kts 304°
2026-04-28 18:59 -58.38724 -61.17933 27236 ft 202 kts 304°
2026-04-28 18:59 -58.37728 -61.19827 27236 ft 202 kts 304°
2026-04-28 18:59 -58.36731 -61.21718 27236 ft 202 kts 304°
2026-04-28 18:59 -58.35735 -61.23609 27236 ft 202 kts 304°
2026-04-28 19:00 -58.34739 -61.25497 27241 ft 202 kts 305°
2026-04-28 19:00 -58.33756 -61.27358 27241 ft 202 kts 304°
2026-04-28 19:00 -58.32760 -61.29243 27241 ft 202 kts 304°
2026-04-28 19:00 -58.31764 -61.31126 27246 ft 202 kts 304°
2026-04-28 19:01 -58.30768 -61.33008 27247 ft 202 kts 304°
2026-04-28 19:01 -58.29771 -61.34891 27247 ft 202 kts 304°
2026-04-28 19:01 -58.28772 -61.36772 27246 ft 202 kts 304°
2026-04-28 19:01 -58.27776 -61.38650 27246 ft 202 kts 304°
2026-04-28 19:02 -58.26775 -61.40534 27240 ft 202 kts 304°
2026-04-28 19:02 -58.25779 -61.42410 27240 ft 202 kts 304°
2026-04-28 19:02 -58.24792 -61.44263 27240 ft 202 kts 304°
2026-04-28 19:02 -58.23793 -61.46141 27240 ft 202 kts 304°
2026-04-28 19:03 -58.22792 -61.48019 27240 ft 202 kts 305°
2026-04-28 19:03 -58.21791 -61.49895 27240 ft 202 kts 304°
2026-04-28 19:03 -58.20790 -61.51770 27240 ft 202 kts 305°
2026-04-28 19:03 -58.19788 -61.53646 27240 ft 202 kts 305°
2026-04-28 19:04 -58.18786 -61.55520 27240 ft 202 kts 305°
2026-04-28 19:04 -58.17797 -61.57368 27240 ft 202 kts 305°
2026-04-28 19:04 -58.16797 -61.59236 27240 ft 202 kts 305°
2026-04-28 19:04 -58.15794 -61.61107 27239 ft 202 kts 305°
2026-04-28 19:05 -58.14790 -61.62978 27224 ft 202 kts 305°
2026-04-28 19:05 -58.13791 -61.64839 27238 ft 201 kts 305°
2026-04-28 19:05 -58.13128 -61.66075 27237 ft 202 kts 305°
2026-04-28 19:05 -58.11784 -61.68574 27237 ft 203 kts 305°
2026-04-28 19:06 -58.10775 -61.70448 27234 ft 204 kts 305°
2026-04-28 19:06 -58.10104 -61.71692 27234 ft 204 kts 305°
2026-04-28 19:06 -58.08763 -61.74180 27235 ft 204 kts 305°
2026-04-28 19:06 -58.07748 -61.76062 27235 ft 205 kts 305°
2026-04-28 19:07 -58.06731 -61.77944 27233 ft 205 kts 305°
2026-04-28 19:07 -58.05713 -61.79828 27239 ft 205 kts 305°
2026-04-28 19:07 -58.04694 -61.81710 27239 ft 205 kts 305°
2026-04-28 19:07 -58.03675 -61.83594 27239 ft 205 kts 305°
2026-04-28 19:08 -58.02656 -61.85472 27241 ft 205 kts 306°
2026-04-28 19:08 -58.01633 -61.87358 27242 ft 205 kts 305°
2026-04-28 19:08 -58.00628 -61.89211 27241 ft 205 kts 306°
2026-04-28 19:08 -57.99606 -61.91092 27241 ft 205 kts 306°
2026-04-28 19:09 -57.98583 -61.92973 27241 ft 205 kts 306°
2026-04-28 19:09 -57.97560 -61.94853 27241 ft 205 kts 306°
2026-04-28 19:09 -57.96537 -61.96732 27244 ft 205 kts 306°
2026-04-28 19:09 -57.95513 -61.98610 27244 ft 205 kts 306°
2026-04-28 19:10 -57.94489 -62.00487 27244 ft 205 kts 306°
2026-04-28 19:10 -57.93478 -62.02339 27244 ft 206 kts 306°
2026-04-28 19:10 -57.92456 -62.04209 27241 ft 204 kts 306°
2026-04-28 19:10 -57.91434 -62.06077 27245 ft 205 kts 306°
2026-04-28 19:11 -57.90412 -62.07947 27237 ft 206 kts 306°
2026-04-28 19:11 -57.89383 -62.09823 27239 ft 206 kts 306°
2026-04-28 19:11 -57.88351 -62.11706 27251 ft 206 kts 306°
2026-04-28 19:11 -57.87321 -62.13582 27248 ft 207 kts 306°
2026-04-28 19:12 -57.86288 -62.15463 27247 ft 207 kts 306°
2026-04-28 19:12 -57.85254 -62.17345 27245 ft 207 kts 306°
2026-04-28 19:12 -57.84232 -62.19203 27249 ft 208 kts 306°
2026-04-28 19:12 -57.83194 -62.21086 27251 ft 207 kts 306°
2026-04-28 19:13 -57.82159 -62.22964 27253 ft 207 kts 306°
2026-04-28 19:13 -57.81125 -62.24838 27252 ft 206 kts 306°
2026-04-28 19:13 -57.80093 -62.26709 27258 ft 206 kts 306°
2026-04-28 19:13 -57.79062 -62.28576 27256 ft 206 kts 306°
2026-04-28 19:14 -57.78031 -62.30440 27254 ft 206 kts 306°
2026-04-28 19:14 -57.77015 -62.32277 27253 ft 206 kts 306°
2026-04-28 19:14 -57.75987 -62.34131 27254 ft 205 kts 306°
2026-04-28 19:14 -57.74956 -62.35992 27254 ft 205 kts 306°
2026-04-28 19:15 -57.73929 -62.37842 27252 ft 205 kts 307°
2026-04-28 19:15 -57.72901 -62.39696 27250 ft 205 kts 307°
2026-04-28 19:15 -57.71872 -62.41547 27251 ft 205 kts 307°
2026-04-28 19:15 -57.71190 -62.42773 27245 ft 204 kts 307°
2026-04-28 19:16 -57.69818 -62.45238 27246 ft 205 kts 307°
2026-04-28 19:16 -57.68803 -62.47061 27247 ft 205 kts 307°
2026-04-28 19:16 -57.67772 -62.48911 27245 ft 206 kts 307°
2026-04-28 19:16 -57.66739 -62.50762 27245 ft 206 kts 307°
2026-04-28 19:17 -57.65704 -62.52613 27243 ft 206 kts 307°
2026-04-28 19:17 -57.64670 -62.54466 27248 ft 206 kts 307°
2026-04-28 19:17 -57.63633 -62.56317 27243 ft 206 kts 307°
2026-04-28 19:17 -57.62599 -62.58165 27250 ft 206 kts 307°
2026-04-28 19:18 -57.61562 -62.60016 27250 ft 206 kts 307°
2026-04-28 19:18 -57.60525 -62.61866 27252 ft 206 kts 307°
2026-04-28 19:18 -57.59500 -62.63691 27246 ft 206 kts 307°
2026-04-28 19:18 -57.58461 -62.65540 27249 ft 206 kts 307°
2026-04-28 19:19 -57.57422 -62.67389 27249 ft 206 kts 307°
2026-04-28 19:19 -57.56382 -62.69236 27247 ft 207 kts 307°
2026-04-28 19:19 -57.55343 -62.71083 27247 ft 207 kts 307°
2026-04-28 19:19 -57.54302 -62.72929 27249 ft 207 kts 307°
2026-04-28 19:20 -57.53261 -62.74774 27258 ft 207 kts 307°
2026-04-28 19:20 -57.52221 -62.76619 27253 ft 207 kts 307°
2026-04-28 19:20 -57.51193 -62.78437 27256 ft 207 kts 307°
2026-04-28 19:20 -57.50153 -62.80276 27253 ft 207 kts 307°
2026-04-28 19:21 -57.49115 -62.82109 27253 ft 205 kts 307°
2026-04-28 19:21 -57.48077 -62.83942 27252 ft 205 kts 308°
2026-04-28 19:21 -57.47042 -62.85768 27252 ft 206 kts 308°
2026-04-28 19:21 -57.46003 -62.87600 27251 ft 206 kts 308°
2026-04-28 19:22 -57.44963 -62.89431 27258 ft 206 kts 308°
2026-04-28 19:22 -57.44626 -62.90024 27258 ft 206 kts 308°
2026-04-28 19:22 -57.42894 -62.93070 27258 ft 206 kts 308°
2026-04-28 19:22 -57.41852 -62.94901 27253 ft 206 kts 308°
2026-04-28 19:23 -57.40809 -62.96731 27247 ft 206 kts 308°
2026-04-28 19:23 -57.39766 -62.98561 27247 ft 206 kts 308°
2026-04-28 19:23 -57.38723 -63.00390 27247 ft 206 kts 308°
2026-04-28 19:23 -57.37678 -63.02218 27247 ft 207 kts 308°
2026-04-28 19:24 -57.36634 -63.04047 27253 ft 207 kts 308°
2026-04-28 19:24 -57.35589 -63.05873 27253 ft 207 kts 308°
2026-04-28 19:24 -57.34560 -63.07670 27252 ft 207 kts 308°
2026-04-28 19:24 -57.33514 -63.09495 27252 ft 207 kts 308°
2026-04-28 19:25 -57.32468 -63.11319 27251 ft 207 kts 308°
2026-04-28 19:25 -57.31422 -63.13143 27251 ft 207 kts 308°
2026-04-28 19:25 -57.30375 -63.14964 27251 ft 207 kts 308°
2026-04-28 19:25 -57.29328 -63.16786 27251 ft 207 kts 308°
2026-04-28 19:26 -57.28280 -63.18607 27221 ft 207 kts 308°
2026-04-28 19:26 -57.27237 -63.20418 27256 ft 205 kts 308°
2026-04-28 19:26 -57.26209 -63.22203 27255 ft 206 kts 308°
2026-04-28 19:26 -57.25166 -63.24011 27255 ft 206 kts 308°
2026-04-28 19:27 -57.24123 -63.25819 27255 ft 206 kts 308°
2026-04-28 19:27 -57.23079 -63.27627 27255 ft 206 kts 308°
2026-04-28 19:27 -57.22036 -63.29430 27255 ft 206 kts 308°
2026-04-28 19:27 -57.20991 -63.31237 27255 ft 206 kts 308°
2026-04-28 19:28 -57.19943 -63.33047 27252 ft 206 kts 308°
2026-04-28 19:28 -57.18899 -63.34849 27255 ft 206 kts 308°
2026-04-28 19:28 -57.17852 -63.36654 27255 ft 206 kts 308°
2026-04-28 19:28 -57.16818 -63.38434 27255 ft 206 kts 308°
2026-04-28 19:29 -57.15770 -63.40239 27255 ft 206 kts 308°
2026-04-28 19:29 -57.15074 -63.41435 27255 ft 206 kts 308°
2026-04-28 19:29 -57.13672 -63.43846 27255 ft 206 kts 308°
2026-04-28 19:29 -57.12622 -63.45649 27255 ft 206 kts 308°
2026-04-28 19:30 -57.11571 -63.47451 27257 ft 206 kts 308°
2026-04-28 19:30 -57.10521 -63.49252 27262 ft 206 kts 308°
2026-04-28 19:30 -57.09483 -63.51028 27262 ft 206 kts 308°
2026-04-28 19:30 -57.08432 -63.52828 27262 ft 207 kts 308°
2026-04-28 19:31 -57.07383 -63.54624 27262 ft 207 kts 308°
2026-04-28 19:31 -57.06330 -63.56422 27245 ft 206 kts 308°
2026-04-28 19:31 -57.05281 -63.58214 27261 ft 205 kts 308°
2026-04-28 19:31 -57.04235 -63.59997 27260 ft 206 kts 308°
2026-04-28 19:32 -57.03188 -63.61784 27257 ft 206 kts 308°
2026-04-28 19:32 -57.02138 -63.63571 27263 ft 206 kts 308°
2026-04-28 19:32 -57.01089 -63.65358 27263 ft 206 kts 308°
2026-04-28 19:32 -57.00052 -63.67121 27262 ft 206 kts 308°
2026-04-28 19:33 -56.99000 -63.68907 27254 ft 206 kts 308°
2026-04-28 19:33 -56.97949 -63.70692 27254 ft 206 kts 308°
2026-04-28 19:33 -56.96897 -63.72477 27254 ft 206 kts 308°
2026-04-28 19:33 -56.95845 -63.74260 27254 ft 206 kts 308°
2026-04-28 19:34 -56.94792 -63.76043 27257 ft 206 kts 308°
2026-04-28 19:34 -56.93742 -63.77820 27257 ft 206 kts 308°
2026-04-28 19:34 -56.92687 -63.79605 27257 ft 206 kts 308°
2026-04-28 19:34 -56.91650 -63.81357 27256 ft 206 kts 308°
2026-04-28 19:35 -56.90597 -63.83135 27260 ft 206 kts 308°
2026-04-28 19:35 -56.89543 -63.84913 27260 ft 206 kts 308°
2026-04-28 19:35 -56.88489 -63.86689 27260 ft 206 kts 308°
2026-04-28 19:35 -56.87435 -63.88464 27260 ft 206 kts 308°
2026-04-28 19:36 -56.86380 -63.90238 27257 ft 206 kts 308°
2026-04-28 19:36 -56.85326 -63.92012 27257 ft 206 kts 308°
2026-04-28 19:36 -56.84288 -63.93757 27267 ft 205 kts 309°
2026-04-28 19:36 -56.83238 -63.95520 27269 ft 205 kts 309°
2026-04-28 19:37 -56.82185 -63.97286 27262 ft 206 kts 309°
2026-04-28 19:37 -56.81830 -63.97881 27257 ft 206 kts 309°
2026-04-28 19:37 -56.80076 -64.00821 27259 ft 206 kts 309°
2026-04-28 19:37 -56.79021 -64.02585 27262 ft 206 kts 309°
2026-04-28 19:38 -56.77962 -64.04356 27276 ft 207 kts 309°
2026-04-28 19:38 -56.76898 -64.06133 27274 ft 207 kts 309°
2026-04-28 19:38 -56.75855 -64.07873 27278 ft 206 kts 309°
2026-04-28 19:38 -56.74798 -64.09637 27279 ft 206 kts 309°
2026-04-28 19:39 -56.73743 -64.11397 27278 ft 206 kts 309°
2026-04-28 19:39 -56.72688 -64.13153 27277 ft 205 kts 309°
2026-04-28 19:39 -56.71634 -64.14908 27278 ft 205 kts 309°
2026-04-28 19:39 -56.70580 -64.16660 27277 ft 205 kts 309°
2026-04-28 19:40 -56.69527 -64.18410 27274 ft 205 kts 309°
2026-04-28 19:40 -56.68474 -64.20158 27275 ft 205 kts 309°
2026-04-28 19:40 -56.67435 -64.21882 27275 ft 205 kts 309°
2026-04-28 19:40 -56.66382 -64.23627 27276 ft 205 kts 309°
2026-04-28 19:41 -56.65329 -64.25371 27275 ft 205 kts 309°
2026-04-28 19:41 -56.64278 -64.27111 27278 ft 205 kts 309°
2026-04-28 19:41 -56.63224 -64.28853 27231 ft 205 kts 310°
2026-04-28 19:41 -56.62172 -64.30590 27265 ft 205 kts 310°
2026-04-28 19:42 -56.61118 -64.32334 27257 ft 205 kts 310°
2026-04-28 19:42 -56.60059 -64.34081 27260 ft 206 kts 310°
2026-04-28 19:42 -56.59011 -64.35807 27256 ft 206 kts 310°
2026-04-28 19:42 -56.58292 -64.36992 27266 ft 207 kts 310°
2026-04-28 19:43 -56.56882 -64.39314 27258 ft 207 kts 310°
2026-04-28 19:43 -56.55814 -64.41069 27261 ft 207 kts 310°
2026-04-28 19:43 -56.54745 -64.42825 27258 ft 207 kts 310°
2026-04-28 19:43 -56.53675 -64.44583 27258 ft 208 kts 310°
2026-04-28 19:44 -56.52603 -64.46341 27262 ft 208 kts 310°
2026-04-28 19:44 -56.51530 -64.48100 27260 ft 208 kts 310°
2026-04-28 19:44 -56.50457 -64.49859 27261 ft 208 kts 310°
2026-04-28 19:44 -56.49396 -64.51594 27262 ft 208 kts 310°
2026-04-28 19:45 -56.48323 -64.53350 27265 ft 209 kts 310°
2026-04-28 19:45 -56.47246 -64.55110 27265 ft 209 kts 310°
2026-04-28 19:45 -56.46167 -64.56870 27263 ft 209 kts 310°
2026-04-28 19:45 -56.45089 -64.58629 27266 ft 209 kts 310°
2026-04-28 19:46 -56.44010 -64.60388 27260 ft 209 kts 310°
2026-04-28 19:46 -56.42932 -64.62145 27260 ft 209 kts 310°
2026-04-28 19:46 -56.41867 -64.63878 27259 ft 209 kts 310°
2026-04-28 19:46 -56.40788 -64.65635 27254 ft 209 kts 311°
2026-04-28 19:47 -56.39708 -64.67389 27259 ft 209 kts 311°
2026-04-28 19:47 -56.38624 -64.69147 27259 ft 210 kts 311°
2026-04-28 19:47 -56.37539 -64.70910 27259 ft 210 kts 311°
2026-04-28 19:47 -56.36453 -64.72669 27259 ft 210 kts 311°
2026-04-28 19:48 -56.35363 -64.74435 27259 ft 211 kts 311°
2026-04-28 19:48 -56.34272 -64.76201 27259 ft 211 kts 311°
2026-04-28 19:48 -56.33179 -64.77968 27260 ft 211 kts 311°
2026-04-28 19:48 -56.32099 -64.79713 27260 ft 211 kts 311°
2026-04-28 19:49 -56.31004 -64.81482 27257 ft 211 kts 311°
2026-04-28 19:49 -56.29908 -64.83249 27257 ft 212 kts 311°
2026-04-28 19:49 -56.28812 -64.85017 27257 ft 212 kts 311°
2026-04-28 19:49 -56.27715 -64.86784 27257 ft 212 kts 311°
2026-04-28 19:50 -56.25519 -64.90316 27257 ft 212 kts 311°
2026-04-28 19:50 -56.24435 -64.92058 27257 ft 212 kts 311°
2026-04-28 19:50 -56.23336 -64.93823 27260 ft 212 kts 311°
2026-04-28 19:51 -56.22237 -64.95587 27262 ft 212 kts 311°
2026-04-28 19:51 -56.21137 -64.97351 27262 ft 212 kts 311°
2026-04-28 19:51 -56.20038 -64.99110 27262 ft 212 kts 311°
2026-04-28 19:51 -56.18937 -65.00872 27262 ft 212 kts 311°
2026-04-28 19:52 -56.17836 -65.02634 27257 ft 212 kts 311°
2026-04-28 19:52 -56.16732 -65.04398 27258 ft 213 kts 311°
2026-04-28 19:52 -56.15640 -65.06141 27258 ft 213 kts 311°
2026-04-28 19:52 -56.14532 -65.07909 27255 ft 213 kts 311°
2026-04-28 19:53 -56.13423 -65.09676 27255 ft 213 kts 311°
2026-04-28 19:53 -56.12315 -65.11442 27254 ft 213 kts 311°
2026-04-28 19:53 -56.11208 -65.13204 27254 ft 213 kts 311°
2026-04-28 19:53 -56.10101 -65.14964 27254 ft 213 kts 311°
2026-04-28 19:54 -56.08996 -65.16720 27253 ft 213 kts 311°
2026-04-28 19:54 -56.07888 -65.18478 27253 ft 213 kts 311°
2026-04-28 19:54 -56.06796 -65.20212 27256 ft 213 kts 311°
2026-04-28 19:54 -56.05689 -65.21967 27256 ft 213 kts 311°
2026-04-28 19:55 -56.04581 -65.23722 27257 ft 213 kts 312°
2026-04-28 19:55 -56.03471 -65.25478 27256 ft 213 kts 311°
2026-04-28 19:55 -56.02738 -65.26639 27256 ft 213 kts 312°
2026-04-28 19:55 -56.01250 -65.28988 27255 ft 213 kts 311°
2026-04-28 19:56 -56.00144 -65.30737 27252 ft 213 kts 312°
2026-04-28 19:56 -55.99032 -65.32490 27252 ft 213 kts 312°
2026-04-28 19:56 -55.97927 -65.34232 27250 ft 212 kts 313°
2026-04-28 19:56 -55.96837 -65.35949 27257 ft 212 kts 313°
2026-04-28 19:57 -55.95728 -65.37696 27256 ft 213 kts 313°
2026-04-28 19:57 -55.94616 -65.39445 27256 ft 213 kts 313°
2026-04-28 19:57 -55.93500 -65.41198 27256 ft 214 kts 313°
2026-04-28 19:57 -55.92382 -65.42953 27256 ft 214 kts 313°
2026-04-28 19:58 -55.91262 -65.44710 27254 ft 215 kts 313°
2026-04-28 19:58 -55.90141 -65.46467 27254 ft 215 kts 313°
2026-04-28 19:58 -55.89397 -65.47633 27255 ft 215 kts 313°
2026-04-28 19:58 -55.87910 -65.49960 27255 ft 215 kts 313°
2026-04-28 19:59 -55.86786 -65.51719 27255 ft 215 kts 313°
2026-04-28 19:59 -55.85663 -65.53472 27255 ft 215 kts 313°
2026-04-28 19:59 -55.84536 -65.55234 27254 ft 215 kts 313°
2026-04-28 19:59 -55.83412 -65.56986 27254 ft 215 kts 313°
2026-04-28 20:00 -55.82286 -65.58742 27254 ft 215 kts 313°
2026-04-28 20:00 -55.81539 -65.59905 27254 ft 215 kts 313°
2026-04-28 20:00 -55.80412 -65.61660 27254 ft 215 kts 313°
2026-04-28 20:00 -55.79287 -65.63408 27254 ft 215 kts 313°
2026-04-28 20:01 -55.77793 -65.65731 27254 ft 215 kts 313°
2026-04-28 20:01 -55.77030 -65.66915 27254 ft 215 kts 313°
2026-04-28 20:01 -55.75908 -65.68657 27252 ft 214 kts 313°
2026-04-28 20:01 -55.74798 -65.70379 27250 ft 215 kts 313°
2026-04-28 20:02 -55.73671 -65.72125 27258 ft 215 kts 313°
2026-04-28 20:02 -55.72541 -65.73872 27255 ft 215 kts 313°
2026-04-28 20:02 -55.71411 -65.75623 27266 ft 216 kts 313°
2026-04-28 20:02 -55.70278 -65.77373 27266 ft 216 kts 313°
2026-04-28 20:03 -55.68780 -65.79685 27266 ft 216 kts 313°
2026-04-28 20:03 -55.68015 -65.80866 27265 ft 216 kts 313°
2026-04-28 20:03 -55.66875 -65.82637 27267 ft 220 kts 313°
2026-04-28 20:03 -55.65723 -65.84415 27268 ft 225 kts 314°
2026-04-28 20:04 -55.64532 -65.86240 27268 ft 228 kts 314°
2026-04-28 20:04 -55.63329 -65.88086 27269 ft 231 kts 314°
2026-04-28 20:04 -55.62110 -65.89959 27269 ft 233 kts 314°
2026-04-28 20:04 -55.60886 -65.91839 27269 ft 234 kts 314°
2026-04-28 20:05 -55.59651 -65.93732 27264 ft 236 kts 314°
2026-04-28 20:05 -55.58410 -65.95634 27266 ft 236 kts 314°
2026-04-28 20:05 -55.57146 -65.97575 26904 ft 249 kts 314°
2026-04-28 20:05 -55.55800 -65.99636 26388 ft 263 kts 315°
2026-04-28 20:06 -55.54409 -66.01757 25868 ft 273 kts 315°
2026-04-28 20:06 -55.52952 -66.03972 25365 ft 280 kts 315°
2026-04-28 20:06 -55.51470 -66.06232 24877 ft 282 kts 315°
2026-04-28 20:06 -55.49984 -66.08500 24393 ft 284 kts 315°
2026-04-28 20:07 -55.48484 -66.10785 23910 ft 286 kts 315°
2026-04-28 20:07 -55.47482 -66.12306 23597 ft 287 kts 315°
2026-04-28 20:07 -55.45450 -66.15392 22977 ft 289 kts 316°
2026-04-28 20:07 -55.43925 -66.17705 22447 ft 290 kts 316°
2026-04-28 20:08 -55.42392 -66.20031 21765 ft 292 kts 316°
2026-04-28 20:08 -55.40872 -66.22336 20973 ft 294 kts 317°
2026-04-28 20:08 -55.39320 -66.24682 20195 ft 295 kts 317°
2026-04-28 20:08 -55.37763 -66.27032 19429 ft 295 kts 317°
2026-04-28 20:09 -55.36208 -66.29369 18677 ft 293 kts 318°
2026-04-28 20:09 -55.34664 -66.31695 17950 ft 291 kts 318°
2026-04-28 20:09 -55.33134 -66.34002 17168 ft 289 kts 319°
2026-04-28 20:09 -55.31612 -66.36292 16354 ft 287 kts 318°
2026-04-28 20:10 -55.30119 -66.38533 15567 ft 285 kts 318°
2026-04-28 20:10 -55.28619 -66.40790 14793 ft 283 kts 317°
2026-04-28 20:10 -55.27130 -66.43024 14038 ft 281 kts 317°
2026-04-28 20:10 -55.25648 -66.45247 13302 ft 280 kts 317°
2026-04-28 20:11 -55.24172 -66.47456 12506 ft 278 kts 317°
2026-04-28 20:11 -55.22712 -66.49637 11799 ft 273 kts 317°
2026-04-28 20:11 -55.21280 -66.51778 11145 ft 268 kts 317°
2026-04-28 20:11 -55.19872 -66.53891 10505 ft 265 kts 317°
2026-04-28 20:12 -55.18493 -66.55944 9882 ft 262 kts 318°
2026-04-28 20:12 -55.17110 -66.58001 9264 ft 259 kts 318°
2026-04-28 20:12 -55.15744 -66.60034 8594 ft 256 kts 318°
2026-04-28 20:12 -55.14391 -66.62044 7927 ft 254 kts 318°
2026-04-28 20:13 -55.13066 -66.64015 7495 ft 246 kts 318°
2026-04-28 20:13 -55.11781 -66.65919 7105 ft 239 kts 317°
2026-04-28 20:13 -55.10533 -66.67775 6714 ft 233 kts 317°
2026-04-28 20:13 -55.09309 -66.69593 6329 ft 229 kts 317°
2026-04-28 20:14 -55.08120 -66.71353 5963 ft 226 kts 317°
2026-04-28 20:14 -55.06936 -66.73117 5585 ft 223 kts 317°
2026-04-28 20:14 -55.05760 -66.74846 5189 ft 219 kts 318°
2026-04-28 20:14 -55.04608 -66.76538 4959 ft 211 kts 318°
2026-04-28 20:15 -55.03515 -66.78155 4901 ft 202 kts 318°
2026-04-28 20:15 -55.02457 -66.79724 4845 ft 198 kts 318°
2026-04-28 20:15 -55.01416 -66.81265 4790 ft 195 kts 319°
2026-04-28 20:15 -55.00413 -66.82834 4738 ft 193 kts 309°
2026-04-28 20:16 -54.99901 -66.84957 4688 ft 195 kts 288°
2026-04-28 20:16 -54.99496 -66.87198 4635 ft 193 kts 294°
2026-04-28 20:16 -54.99014 -66.89386 4583 ft 193 kts 293°
2026-04-28 20:16 -54.98559 -66.91587 4526 ft 193 kts 292°
2026-04-28 20:17 -54.98109 -66.93785 4484 ft 193 kts 292°
2026-04-28 20:17 -54.97660 -66.95985 4431 ft 193 kts 292°
2026-04-28 20:17 -54.97215 -66.98181 4378 ft 192 kts 292°
2026-04-28 20:17 -54.96769 -67.00362 4329 ft 191 kts 293°
2026-04-28 20:18 -54.96319 -67.02500 4278 ft 191 kts 294°
2026-04-28 20:18 -54.95866 -67.04659 4226 ft 190 kts 294°
2026-04-28 20:18 -54.95411 -67.06816 4185 ft 190 kts 291°
2026-04-28 20:18 -54.94955 -67.09001 4132 ft 193 kts 291°
2026-04-28 20:19 -54.94575 -67.11251 4082 ft 196 kts 279°
2026-04-28 20:19 -54.94533 -67.13634 4035 ft 197 kts 274°
2026-04-28 20:19 -54.94479 -67.16038 3849 ft 202 kts 277°
2026-04-28 20:19 -54.94370 -67.18479 3581 ft 208 kts 278°
2026-04-28 20:20 -54.94260 -67.21024 3315 ft 213 kts 277°
2026-04-28 20:20 -54.94156 -67.23606 3055 ft 215 kts 277°
2026-04-28 20:20 -54.94050 -67.26138 2796 ft 192 kts 278°
2026-04-28 20:20 -54.93947 -67.28242 2522 ft 162 kts 277°
2026-04-28 20:21 -54.93881 -67.30118 2242 ft 151 kts 277°
2026-04-28 20:21 -54.93816 -67.31910 1958 ft 147 kts 278°
2026-04-28 20:21 -54.93729 -67.33668 1711 ft 142 kts 278°
2026-04-28 20:21 -54.93660 -67.35363 1501 ft 142 kts 277°
2026-04-28 20:22 -54.93613 -67.37132 1315 ft 149 kts 277°
2026-04-28 20:22 -54.93526 -67.38931 1203 ft 151 kts 278°
2026-04-28 20:22 -54.93426 -67.40762 1034 ft 153 kts 275°
2026-04-28 20:22 -54.93366 -67.42582 955 ft 148 kts 274°
2026-04-28 20:23 -54.93295 -67.44357 903 ft 147 kts 275°
2026-04-28 20:23 -54.93284 -67.46118 852 ft 143 kts 270°
2026-04-28 20:23 -54.93269 -67.47781 786 ft 133 kts 273°
2026-04-28 20:23 -54.93246 -67.49338 726 ft 129 kts 273°
2026-04-28 20:24 -54.93232 -67.50872 697 ft 126 kts 273°
2026-04-28 20:24 -54.93208 -67.52413 664 ft 127 kts 275°
2026-04-28 20:24 -54.93184 -67.53954 637 ft 127 kts 272°
2026-04-28 20:24 -54.93184 -67.55489 594 ft 124 kts 272°
2026-04-28 20:25 -54.93168 -67.56835 539 ft 101 kts 271°
2026-04-28 20:25 -54.93172 -67.58035 440 ft 98 kts 272°
2026-04-28 20:25 -54.93152 -67.59211 336 ft 97 kts 277°
2026-04-28 20:25 -54.93139 -67.60359 223 ft 92 kts 277°
2026-04-28 20:26 -54.93118 -67.61440 101 ft 92 kts 273°
2026-04-28 20:26 -54.93104 -67.62383 60 ft 48 kts 268°
2026-04-28 20:26 -54.93110 -67.62538 56 ft 10 kts 82°
2026-04-28 20:26 -54.93107 -67.62337 52 ft 22 kts 94°
2026-04-28 20:27 -54.93109 -67.62149 52 ft 16 kts 91°
2026-04-28 20:27 -54.93107 -67.61908 50 ft 24 kts 89°
2026-04-28 20:27 -54.93124 -67.61654 48 ft 14 kts 146°
2026-04-28 20:27 -54.93209 -67.61693 51 ft 13 kts 246°
2026-04-28 20:28 -54.93217 -67.61740 51 ft 0 kts 255°